ECMWFFLT1_500_spd_057.txt.gz
Wind_Speed
22 20 18 18 17 17 16 16 15 15 15 17 18 20 21 22 21 20 20 19 19 20 19 18 18 18 18 17 18 18 18 17 16 16 17 17 16 15 14 14 14 14 13 12 11 10 9 11 13 13 12 11 11 11 11 10 10 9 8 6 6 7 7
23 20 18 18 17 16 16 17 17 17 16 16 17 18 19 19 20 19 19 19 19 20 19 19 19 19 19 19 19 18 18 18 17 17 17 17 17 17 16 15 14 15 15 14 12 10 10 11 13 14 13 12 12 13 12 11 11 10 8 6 6 6 7
23 20 18 17 15 14 15 16 17 18 17 17 17 17 17 17 17 17 18 18 19 19 18 18 19 19 19 19 19 19 19 18 17 17 17 18 19 19 18 17 16 16 16 15 13 12 12 13 14 15 14 13 13 14 14 12 12 11 9 7 6 6 6
22 19 18 17 15 15 16 17 18 19 20 20 19 18 17 17 17 18 18 18 19 19 18 18 19 20 20 20 20 20 19 19 18 17 18 19 20 20 20 19 18 17 17 17 16 14 14 14 15 15 15 14 14 15 15 14 13 13 10 8 6 5 5
22 20 19 18 17 17 17 18 18 18 20 21 21 21 20 20 20 19 19 19 19 19 19 19 20 20 21 20 20 20 20 20 19 18 19 19 20 21 20 20 20 19 19 19 18 16 15 16 16 17 16 15 15 16 16 15 14 14 12 9 7 5 5
24 22 20 19 18 18 18 18 18 18 19 20 21 22 22 23 22 20 20 20 20 20 19 19 19 20 21 20 20 20 20 20 20 20 20 20 21 20 20 22 22 22 21 20 19 18 17 18 18 18 17 16 16 17 17 16 15 15 13 10 8 6 6
26 23 21 21 21 19 18 17 18 19 20 21 22 23 24 25 24 23 23 22 22 21 20 19 19 20 21 21 21 21 21 21 20 21 21 21 21 21 21 22 22 23 23 21 20 19 19 19 20 19 18 16 17 18 17 16 16 16 14 12 9 7 7
26 23 21 23 23 21 19 17 18 19 21 23 25 26 26 25 25 25 24 23 23 22 20 20 19 20 21 21 21 20 21 21 21 22 22 22 22 22 22 23 23 24 24 22 21 21 20 21 21 21 19 17 18 19 18 17 17 17 16 13 11 9 7
26 23 23 24 25 24 22 21 22 23 24 25 27 27 27 27 26 25 24 24 24 22 20 20 20 21 21 21 20 20 21 21 21 22 23 24 24 23 24 24 25 25 25 24 23 23 23 23 24 22 20 18 20 20 19 18 17 18 17 15 12 10 8
26 24 25 27 28 27 26 25 26 27 28 28 29 29 29 28 27 27 26 25 23 21 21 21 21 21 21 20 20 20 20 19 20 21 22 23 25 25 25 25 25 26 25 25 25 24 24 25 25 23 20 19 21 21 20 19 18 19 18 17 14 12 10
28 27 29 30 29 28 27 27 27 29 30 29 29 29 29 28 27 27 26 25 22 21 21 21 21 21 21 20 20 19 18 18 19 20 21 22 23 24 25 25 25 25 26 25 25 25 25 26 25 22 19 19 21 22 21 20 19 20 20 18 16 14 12
31 31 32 32 31 29 28 27 28 29 30 30 29 28 28 27 26 26 25 24 22 22 21 21 21 21 20 20 19 17 16 16 17 17 18 19 20 20 21 22 22 23 24 25 25 25 25 24 22 20 19 20 23 24 23 21 20 20 21 20 18 16 15
34 34 35 36 34 32 30 28 28 29 31 30 27 26 26 27 26 25 24 23 22 22 22 22 21 21 20 20 19 17 15 14 14 14 15 16 17 17 18 18 19 20 21 22 22 21 21 21 19 19 19 20 23 24 24 22 21 21 22 21 19 18 17
36 36 38 38 37 35 32 29 28 30 32 30 26 24 25 26 26 27 25 24 23 23 22 22 22 21 20 20 19 17 14 13 12 12 12 12 11 11 12 13 14 15 16 17 17 17 17 18 18 18 19 20 22 24 25 23 22 22 22 22 21 21 20
37 37 39 40 39 38 35 32 30 30 32 31 28 25 24 24 25 27 26 25 24 24 24 23 22 21 20 20 19 17 15 13 11 10 9 8 6 6 6 6 7 8 10 12 14 15 16 16 17 18 19 20 21 23 24 24 22 22 23 24 24 23 22
36 37 38 39 40 39 37 35 32 31 32 33 30 27 25 24 24 25 25 24 25 25 24 23 21 19 18 17 16 17 16 14 12 10 9 6 5 5 4 4 4 4 5 7 10 13 15 16 17 18 19 19 20 22 23 24 23 23 24 25 26 26 25
34 35 35 37 39 40 39 36 32 31 32 32 27 24 24 24 23 23 23 24 25 24 23 21 19 18 16 14 15 17 16 14 12 11 9 7 7 7 7 8 8 7 6 6 7 9 12 15 16 18 19 19 20 22 23 24 24 25 26 27 28 29 28
30 32 33 35 39 41 40 36 32 31 32 30 24 21 21 21 22 23 23 23 23 22 21 21 19 18 16 14 16 17 16 15 14 13 11 10 10 10 11 12 12 11 9 9 9 10 10 11 13 15 18 19 21 23 23 24 26 27 27 28 29 30 30
28 29 31 35 39 41 40 37 33 31 31 30 25 21 20 21 22 23 22 22 21 22 22 21 19 18 17 16 17 17 16 16 16 15 14 13 14 15 16 16 15 14 14 13 14 13 11 10 12 13 15 17 19 21 23 24 26 28 29 29 30 31 32
28 29 31 34 37 39 39 38 35 32 31 30 27 23 22 23 24 23 23 23 24 24 24 23 22 21 19 18 18 18 19 19 18 17 17 18 19 20 20 19 18 18 18 18 18 17 14 14 15 15 15 16 17 19 21 23 25 28 29 30 31 32 33
30 30 31 33 34 35 36 37 35 34 32 31 29 26 25 25 25 24 25 26 27 27 26 25 25 24 23 22 21 21 21 21 20 20 20 21 23 23 23 23 23 22 23 23 22 21 20 20 19 18 18 18 18 19 19 21 24 27 29 31 32 33 35
31 30 31 31 32 31 33 34 35 35 33 31 30 28 26 26 27 26 26 27 27 27 27 26 25 24 24 23 23 24 24 24 24 23 23 24 25 26 27 27 26 26 26 26 26 25 25 24 23 22 22 22 22 22 22 23 24 25 28 30 33 35 36
33 31 30 30 30 30 31 33 34 35 34 32 31 30 29 29 29 27 26 27 27 27 27 25 24 25 25 26 26 26 26 27 27 26 26 27 27 27 28 28 28 28 29 29 29 29 28 28 27 27 28 28 27 26 26 27 27 27 28 30 33 36 37
34 33 31 30 30 30 30 32 34 35 34 34 33 32 32 32 32 30 29 29 28 28 28 27 26 26 27 28 27 27 27 27 28 29 30 30 29 29 28 29 30 30 31 31 31 31 31 31 31 31 31 32 31 30 31 31 32 31 31 32 34 36 37
36 35 32 31 30 30 30 32 34 36 36 35 34 33 33 33 34 33 31 30 30 31 31 30 28 27 26 27 28 29 30 30 31 32 33 32 31 30 30 31 32 32 33 34 34 33 34 34 34 34 34 34 34 34 35 35 35 35 35 36 37 38 39
35 36 34 32 31 30 30 32 34 37 38 37 36 35 34 34 35 34 32 30 30 31 30 30 29 28 28 29 30 31 33 35 37 35 34 33 33 33 33 33 34 35 36 36 36 36 36 36 36 36 36 36 37 38 38 38 39 38 38 40 41 41 41
34 36 35 33 32 31 31 32 34 36 38 39 39 38 38 37 35 34 33 32 32 33 32 32 31 31 31 31 30 30 32 35 38 36 32 32 34 35 35 35 36 38 40 40 39 39 39 37 36 35 36 38 40 41 41 41 42 41 40 42 43 45 46
34 35 35 34 33 33 33 34 35 35 37 39 40 41 41 40 38 36 36 36 36 36 35 33 33 32 31 31 31 31 32 33 33 32 31 31 33 35 36 37 39 40 41 42 42 42 41 39 38 37 38 40 43 44 44 45 45 44 43 44 45 48 49
35 35 35 35 35 35 35 35 35 35 36 38 40 40 41 41 40 40 39 39 39 38 36 34 34 33 33 33 33 34 35 34 32 32 32 32 34 35 37 38 40 41 42 43 44 44 42 41 42 42 43 43 44 45 47 48 48 46 46 46 47 50 53
36 35 35 35 36 37 37 37 37 36 36 37 38 38 38 39 39 39 40 40 40 38 36 36 36 35 35 35 35 36 36 36 35 35 35 36 37 39 40 41 42 44 45 46 46 46 45 44 45 46 46 46 47 47 47 49 48 48 48 49 49 51 55
37 36 35 36 37 38 39 38 38 38 38 38 37 37 37 36 35 35 36 37 37 37 36 36 37 37 37 37 38 38 38 38 38 39 39 41 42 43 44 45 46 46 47 48 49 49 48 48 49 49 48 49 50 50 49 49 48 48 50 50 49 51 54
38 36 36 36 37 38 40 41 40 40 39 39 38 37 37 36 35 35 35 36 37 37 38 38 39 39 39 39 39 39 39 40 40 41 43 44 45 47 47 47 47 47 47 49 50 50 50 51 51 51 52 52 53 54 55 55 53 51 51 51 52 54 55
37 37 37 37 37 38 40 43 43 42 42 41 40 40 39 39 39 39 39 39 40 40 41 41 42 42 42 41 40 41 41 41 42 43 43 44 45 46 46 47 47 48 48 49 50 51 52 53 53 54 55 56 56 56 59 61 59 56 54 54 55 56 58
38 37 37 38 38 38 39 42 44 45 45 44 44 43 43 43 43 42 42 43 43 44 44 44 45 45 45 44 43 43 43 43 43 43 43 44 44 45 46 47 49 51 52 52 53 54 54 55 56 57 58 59 60 60 62 64 64 61 58 58 58 59 61
39 38 38 38 38 38 37 38 41 44 45 46 46 46 46 46 46 46 46 46 46 47 48 48 48 47 46 44 43 43 43 43 44 44 45 46 47 48 50 51 53 55 55 55 56 57 58 59 60 60 61 63 64 64 65 66 66 64 61 60 61 64 65
39 39 39 39 38 37 37 36 37 40 42 44 45 45 46 46 46 46 47 47 47 47 48 47 46 44 43 42 42 43 44 45 46 48 49 50 51 52 54 55 57 58 57 56 57 59 60 61 61 62 64 68 69 69 69 69 68 68 67 65 65 67 70
40 39 40 40 39 37 36 36 37 37 38 39 40 40 41 41 42 42 42 43 43 43 43 43 43 43 43 44 44 46 47 48 50 51 51 52 53 54 56 57 57 58 58 57 56 57 59 60 61 64 68 71 72 73 73 72 71 70 70 70 68 68 70
40 39 39 40 39 38 37 37 37 37 38 39 39 39 40 40 41 41 41 42 42 42 43 44 44 45 46 47 48 49 49 50 52 52 51 52 53 54 56 56 55 56 56 56 56 57 59 61 63 66 69 72 75 77 78 78 76 74 73 72 72 72 72

ECMWFFLT1_500_spd_060.txt.gz
Wind_Speed
27 26 24 23 22 21 21 21 22 22 22 21 21 22 23 23 24 24 24 24 23 23 23 23 22 22 22 22 22 22 21 21 21 22 22 21 20 19 19 18 17 16 16 15 13 11 9 8 8 8 8 8 8 8 8 9 9 10 10 10 9 8 8
28 26 25 23 22 21 20 21 22 23 23 23 23 23 23 23 23 24 24 24 24 24 24 24 24 23 23 23 23 22 21 21 21 21 22 22 22 21 21 19 18 18 18 17 14 12 10 9 10 9 9 9 9 9 9 10 10 10 11 11 9 8 8
28 27 24 22 21 21 21 21 21 22 23 24 24 24 23 22 23 23 24 24 25 25 24 24 24 24 24 23 23 22 21 21 21 21 21 22 22 22 21 20 19 19 19 18 16 14 12 12 12 11 10 11 11 10 10 11 11 11 11 11 10 8 8
29 27 24 22 21 21 21 20 19 19 21 23 24 24 23 23 23 23 23 24 24 24 24 24 24 24 24 23 23 22 22 21 21 21 22 22 22 22 21 20 20 20 20 20 19 16 14 14 13 12 12 12 12 12 12 12 12 12 12 12 10 9 8
31 28 25 24 22 21 20 19 18 17 18 20 22 24 25 25 24 23 23 23 23 23 24 24 24 23 23 23 23 22 21 21 21 21 21 22 22 22 21 21 22 21 21 21 20 18 16 15 15 14 14 14 14 13 13 13 13 13 13 12 11 10 9
32 29 27 25 24 22 20 19 17 17 17 18 20 22 25 26 26 24 24 23 23 23 23 23 22 22 22 22 21 21 20 20 20 20 20 21 21 21 21 22 22 22 22 21 20 19 18 16 16 16 15 15 16 15 15 15 14 14 14 13 13 12 10
33 31 29 28 26 24 22 20 17 16 17 18 21 23 25 26 26 26 26 24 23 23 23 22 21 21 21 21 21 21 20 20 20 20 20 20 21 20 21 22 22 22 22 21 20 20 19 18 18 17 17 17 17 17 16 16 16 15 15 14 14 14 12
35 32 31 30 28 26 24 22 19 17 18 20 22 23 25 27 26 27 27 26 26 25 24 22 21 21 21 21 21 21 21 21 20 20 20 20 20 20 21 21 21 22 22 21 20 19 19 19 19 19 18 18 19 18 18 17 17 17 16 15 15 15 14
37 34 33 32 31 29 27 24 22 21 22 24 24 24 26 27 27 27 27 27 28 26 24 23 22 22 22 21 21 21 21 21 21 20 20 20 20 21 22 22 22 23 23 22 21 20 19 19 19 19 19 19 20 20 19 18 19 18 17 17 17 16 15
39 36 34 33 32 32 30 28 27 27 26 26 27 26 26 27 27 27 27 28 28 26 25 24 23 22 21 20 21 21 21 21 21 21 21 21 21 22 23 24 24 24 24 24 23 21 20 21 21 21 21 21 21 21 20 20 20 20 19 19 18 18 17
39 36 35 35 35 34 34 33 31 29 27 27 29 27 26 27 28 28 28 28 27 26 26 25 24 22 21 20 21 21 21 21 21 21 20 21 22 23 24 25 25 25 25 25 24 23 22 22 22 22 22 22 22 22 21 21 22 21 21 20 19 19 19
40 38 37 37 37 36 36 35 33 31 29 28 29 28 26 26 27 28 29 29 28 27 27 26 25 23 22 21 21 21 20 20 20 19 20 21 22 23 25 25 25 25 25 25 25 25 24 23 23 22 22 23 23 22 22 22 23 23 22 21 20 20 20
40 40 39 38 38 38 37 36 35 33 31 29 28 28 26 26 26 27 28 28 29 28 28 27 26 24 23 23 22 21 20 19 19 19 20 21 22 23 24 24 24 24 24 24 24 24 23 23 23 22 22 23 22 21 22 23 23 23 23 22 20 20 21
41 41 41 41 41 40 39 39 37 35 34 31 28 27 27 26 26 25 26 27 28 29 29 28 27 25 24 24 23 21 20 20 20 20 21 21 21 21 21 21 21 21 21 22 21 21 21 21 21 21 21 21 21 21 22 23 23 23 23 22 21 20 21
43 43 43 44 44 42 41 41 39 37 35 32 29 28 29 27 24 23 23 24 27 28 28 27 26 25 25 25 23 21 21 22 21 21 21 20 19 18 18 17 17 18 18 18 18 18 18 18 18 18 18 19 19 20 21 21 22 22 22 22 21 21 22
45 46 46 46 46 44 43 42 41 39 35 33 30 30 29 27 24 23 22 23 25 26 26 26 25 24 25 25 23 22 23 23 22 21 20 19 17 16 15 14 14 13 13 13 14 13 13 14 14 14 15 16 17 19 20 20 20 21 22 22 22 22 23
44 47 48 48 47 45 43 43 42 40 36 33 30 29 29 30 27 25 24 23 23 24 25 26 24 24 25 24 23 23 23 22 21 21 19 18 16 15 14 13 11 10 10 10 9 7 7 8 9 10 12 14 16 18 19 18 19 20 22 23 23 24 25
40 44 47 48 47 45 43 43 43 42 38 34 32 30 30 31 29 26 25 24 22 22 24 25 25 24 24 24 24 23 23 22 21 20 19 18 17 16 15 14 13 11 10 9 7 6 6 6 6 7 9 11 13 15 17 18 18 20 22 23 24 25 26
34 38 41 44 44 43 42 42 44 44 41 37 35 32 31 32 29 25 24 25 23 23 23 24 24 24 24 24 25 24 22 21 21 20 20 19 18 18 18 16 14 12 10 9 8 8 7 7 7 7 7 8 10 12 13 15 16 18 21 24 26 27 28
30 32 34 37 40 41 40 41 43 44 43 42 38 34 34 34 29 24 24 26 25 24 23 23 24 24 24 25 25 23 22 21 21 20 20 20 20 20 18 16 14 13 12 11 11 10 10 10 10 10 10 10 11 11 12 13 13 15 18 21 24 26 28
30 30 30 31 33 35 37 40 42 43 45 45 41 37 36 33 28 24 24 25 24 24 24 24 25 25 26 26 25 24 24 22 21 21 21 21 21 20 18 17 15 14 14 14 14 14 14 15 15 15 14 14 14 14 14 14 15 16 17 19 21 23 25
30 30 30 29 28 30 32 37 40 42 45 46 43 39 35 31 28 26 25 24 25 26 26 26 26 27 27 28 27 26 24 23 22 23 22 22 22 21 20 19 18 18 18 19 19 19 20 20 20 20 20 20 20 19 19 19 19 20 21 23 24 25 26
31 30 30 29 28 28 30 33 36 39 43 44 43 40 35 32 30 28 26 25 26 26 28 27 27 28 28 27 26 24 24 24 24 24 24 23 23 23 23 23 22 23 23 23 24 24 24 24 25 26 26 26 26 26 26 25 25 25 25 27 29 30 30
32 32 31 29 28 28 29 30 31 34 38 42 43 41 36 33 31 28 26 27 27 27 28 27 26 25 24 23 23 23 25 26 27 27 26 26 26 26 26 27 26 26 27 28 29 28 28 29 30 31 31 30 31 31 31 31 31 30 30 31 33 35 35
34 34 32 31 29 28 29 30 30 30 33 37 40 41 36 33 31 29 28 28 29 28 28 25 22 21 20 21 24 26 28 29 29 29 29 28 28 29 29 29 29 30 31 32 33 33 34 34 33 33 34 34 35 35 36 36 36 35 35 36 37 38 40
35 34 33 32 30 29 29 30 29 29 30 33 37 40 37 34 31 30 30 30 30 29 28 26 23 22 23 24 25 27 29 30 30 31 30 29 30 30 31 31 32 34 36 36 36 37 37 37 36 35 36 37 37 38 38 39 40 39 38 38 40 41 43
34 34 33 32 31 31 31 30 29 29 29 31 36 39 38 34 32 31 31 31 30 30 30 29 27 27 27 26 25 26 27 29 31 32 33 34 34 34 33 34 35 37 38 38 38 39 39 38 38 37 38 38 39 41 40 41 43 42 39 37 39 42 44
34 34 33 32 31 31 31 31 30 30 30 31 35 37 37 35 33 33 33 33 32 31 30 30 29 28 28 28 28 27 27 28 31 32 33 34 33 32 32 34 37 40 40 38 38 38 39 39 39 40 40 41 42 43 43 43 44 43 41 37 37 41 44
35 34 33 33 32 31 31 31 30 30 30 32 34 36 37 36 36 36 36 35 33 31 30 30 30 30 30 30 31 31 30 31 31 30 29 29 29 28 29 31 35 38 39 37 36 37 38 38 39 41 41 41 41 43 43 44 44 44 43 41 40 42 46
35 34 34 33 32 32 31 30 30 31 31 32 34 36 37 38 38 38 37 36 35 34 33 33 33 34 34 34 34 35 34 34 34 32 31 31 31 31 32 33 34 35 36 36 36 37 37 39 41 43 43 43 44 44 44 46 47 47 46 43 42 44 47
37 36 35 34 34 33 31 30 30 30 31 33 34 36 38 39 41 41 41 40 39 38 37 37 37 37 37 38 38 39 39 38 36 35 35 35 35 35 36 36 37 37 37 38 38 38 39 42 44 46 47 47 47 48 48 50 51 51 49 47 46 48 49
39 38 36 36 35 34 33 31 31 30 31 33 34 36 37 39 41 43 43 42 41 41 41 41 40 40 40 41 41 42 42 41 40 39 39 39 39 39 39 40 41 41 41 41 40 41 43 45 47 49 50 50 50 51 52 53 54 53 51 50 51 52 52
40 40 38 36 36 35 34 33 32 31 32 33 35 36 37 38 40 41 41 42 42 43 43 44 43 43 43 43 43 44 44 43 42 41 41 41 41 42 43 44 44 44 43 43 44 45 47 49 50 52 53 53 53 54 55 55 55 55 53 52 53 53 53
41 41 40 38 37 36 36 35 34 33 33 34 36 37 38 38 39 40 40 40 41 42 43 43 43 43 43 43 44 44 43 43 42 42 42 43 44 45 45 45 45 45 45 45 46 48 49 50 51 52 53 54 55 56 56 56 56 56 56 55 56 57 58
40 41 41 39 38 37 36 36 35 35 34 34 36 38 39 39 40 40 40 41 40 40 40 40 41 41 41 41 41 41 42 42 43 44 44 45 45 46 46 45 46 46 46 46 48 50 51 52 52 53 54 56 57 58 59 59 58 59 59 59 59 61 63
39 41 41 40 39 38 37 37 37 37 36 35 37 39 40 41 42 42 42 42 42 41 41 41 41 41 41 41 41 42 43 44 46 46 47 47 47 46 45 45 46 47 48 49 51 53 54 55 56 57 58 59 60 61 63 64 63 63 64 65 63 64 66
37 39 40 41 40 39 38 37 37 37 37 37 37 38 41 42 44 44 44 44 43 43 43 43 44 44 44 44 45 46 47 49 49 49 49 48 46 45 44 45 47 48 50 52 53 55 56 57 57 58 60 62 63 63 64 66 66 65 66 67 67 67 67
36 37 39 40 40 39 38 37 36 36 36 37 37 37 38 40 42 43 44 44 45 45 46 46 47 47 48 48 49 50 51 51 50 49 48 46 45 45 46 48 50 52 53 54 55 56 57 57 57 58 58 61 64 65 65 66 67 67 68 69 70 71 70

ECMWFFLT1_500_spd_063.txt.gz
Wind_Speed
29 28 28 26 24 23 21 20 20 21 21 21 22 23 23 23 23 22 22 22 22 22 23 23 23 24 23 23 22 22 21 20 21 22 22 21 20 19 18 18 17 16 15 14 13 11 9 8 7 6 6 6 8 9 9 8 8 8 8 8 8 8 8
31 30 28 26 25 22 22 22 22 22 22 22 22 23 23 23 23 23 23 24 24 24 25 25 25 24 24 23 23 22 21 21 21 22 22 21 20 19 19 18 17 16 16 15 14 13 11 10 10 9 8 7 8 9 10 10 9 9 8 8 8 8 8
34 31 27 25 22 22 22 22 22 22 22 22 23 23 23 23 23 24 24 25 25 25 25 25 24 24 24 23 23 22 22 21 21 22 22 21 20 19 18 17 17 17 16 16 15 14 13 12 12 11 10 9 9 10 11 11 11 10 10 9 8 8 8
33 29 27 26 23 23 23 22 22 23 22 22 22 23 23 24 25 25 26 25 25 25 24 24 24 24 24 23 23 22 22 22 22 22 22 22 21 19 17 17 17 17 17 17 16 15 14 13 14 14 13 11 10 11 12 12 12 11 11 10 9 8 8
33 27 26 27 24 22 23 23 22 22 21 21 21 22 23 24 26 26 26 25 25 24 24 24 25 24 24 23 23 22 22 22 22 22 23 22 21 20 19 19 19 18 18 19 18 17 15 15 15 15 15 14 13 12 13 13 14 13 12 12 11 9 9
35 30 27 26 24 22 22 23 22 21 20 20 21 21 22 23 25 25 25 25 25 24 24 24 24 24 23 23 23 23 22 22 21 22 22 22 22 21 21 21 21 20 20 20 19 18 18 17 17 17 17 17 15 14 14 14 15 15 14 14 13 11 10
35 31 29 27 25 24 24 23 23 23 22 21 21 21 22 23 24 25 25 25 25 25 24 24 23 23 23 23 23 22 22 22 21 21 21 21 21 21 21 22 21 21 21 21 20 19 19 19 19 19 19 19 18 16 16 16 16 16 16 15 15 13 11
34 31 31 31 29 27 26 25 25 24 24 23 22 21 22 22 22 24 24 25 25 25 24 23 23 23 23 23 23 22 22 22 21 21 20 20 20 20 21 21 21 21 21 21 21 20 20 21 21 20 20 20 20 18 18 18 18 18 17 16 16 15 13
37 33 31 32 32 32 29 27 26 26 25 24 23 23 23 23 23 23 23 24 25 24 24 24 23 23 23 23 22 22 22 22 21 21 20 19 19 19 20 20 20 21 21 21 21 21 21 21 22 21 21 22 21 20 19 19 19 20 19 18 18 17 15
40 37 34 32 34 34 30 28 27 26 25 25 26 26 25 25 25 24 24 24 24 23 23 24 23 23 23 22 22 22 22 22 21 21 21 20 20 20 20 21 21 22 23 23 23 22 22 22 22 22 22 22 21 20 20 20 20 21 20 19 19 18 17
43 39 35 34 34 33 31 29 28 27 26 27 27 26 25 25 25 24 24 24 24 24 24 24 23 23 23 23 23 23 22 22 22 22 22 22 22 22 22 23 23 23 23 24 24 24 24 23 23 22 22 22 22 21 21 21 22 23 22 21 20 19 18
44 38 35 36 36 34 33 31 30 30 30 28 27 26 25 25 24 24 24 24 24 25 25 25 24 23 23 23 23 23 22 22 22 22 22 23 23 23 24 23 23 23 23 23 24 24 24 24 24 24 24 24 23 23 23 23 23 24 24 22 21 20 19
43 39 37 37 36 35 35 33 33 33 33 31 29 28 27 25 24 23 24 24 25 26 26 26 25 24 24 24 24 23 22 22 22 22 23 23 23 24 24 23 22 22 23 23 23 24 24 24 25 25 25 25 25 24 24 24 25 25 24 23 21 20 20
42 41 39 37 37 37 37 37 36 36 35 34 31 29 27 26 24 23 23 24 26 27 27 26 26 24 24 25 25 23 22 23 23 23 23 23 24 23 23 22 21 22 22 22 22 22 23 23 24 25 25 26 26 26 26 25 25 24 23 22 21 20 19
44 43 41 39 40 40 40 39 38 37 36 35 33 30 29 27 25 24 23 23 24 25 26 26 26 25 25 26 26 24 23 24 25 25 24 23 23 22 22 21 21 21 21 21 21 21 21 22 23 24 24 25 25 25 25 24 23 22 21 21 20 19 19
44 43 43 42 42 42 42 40 39 38 37 36 35 33 32 30 29 26 23 22 22 22 23 24 24 24 24 24 25 26 26 26 27 27 25 23 22 21 21 21 21 21 20 20 20 20 20 21 21 21 21 22 22 22 21 20 18 18 19 20 20 20 19
43 44 45 45 44 44 43 42 41 40 39 38 37 36 35 34 32 29 26 23 22 21 22 22 21 21 22 23 25 27 27 28 28 27 26 23 21 21 21 21 20 19 19 18 18 18 18 17 16 17 17 17 17 17 17 15 15 16 17 19 20 20 20
44 46 47 45 44 44 44 44 43 42 41 41 39 39 37 36 35 32 29 26 24 23 22 21 19 19 20 22 24 26 27 28 28 27 25 23 22 21 21 21 20 18 17 16 15 15 14 13 12 12 12 12 13 13 13 13 14 15 17 19 20 21 22
42 44 46 45 43 44 44 45 44 43 43 42 41 41 39 38 37 34 31 29 27 24 23 22 21 20 20 23 24 25 26 27 27 26 25 24 22 22 21 20 19 17 16 15 15 14 13 11 11 10 9 9 9 9 10 11 11 13 15 17 19 21 22
37 39 41 43 45 45 45 45 43 42 43 43 43 42 41 39 37 35 33 31 28 24 23 23 22 20 21 23 24 25 26 27 27 26 26 25 23 22 21 20 18 17 16 16 16 15 13 12 12 11 10 11 10 10 10 10 9 10 12 14 16 18 20
34 36 37 39 41 41 42 43 43 42 41 42 42 42 42 40 38 36 35 33 29 25 23 23 22 20 21 23 24 25 26 26 26 26 26 25 23 22 21 20 19 18 18 18 17 16 15 15 14 13 13 13 14 14 13 12 12 12 13 15 17 18 21
31 33 35 34 33 34 37 40 41 40 39 40 41 42 42 41 40 39 37 34 30 27 25 24 23 20 20 22 23 24 26 26 26 26 25 24 23 22 22 22 21 21 21 21 20 19 18 17 16 16 16 16 17 17 17 16 17 17 18 19 21 23 25
29 30 31 29 26 28 33 34 35 36 37 39 40 42 43 43 42 41 38 35 32 29 26 24 23 20 19 20 22 24 25 26 26 26 25 25 24 23 23 23 23 23 23 24 23 22 21 19 19 20 20 20 21 21 21 21 22 22 21 23 25 28 29
30 31 29 26 26 27 29 29 30 32 33 35 38 41 43 44 44 43 41 37 35 32 26 22 21 20 18 19 21 24 25 26 26 26 26 25 24 24 24 24 25 25 26 26 26 25 24 23 23 23 23 24 24 25 26 26 26 26 26 27 29 31 33
32 31 28 27 28 28 28 28 29 28 29 30 33 37 42 45 45 45 44 41 38 34 27 22 20 19 18 19 22 24 25 25 25 25 26 25 25 25 26 26 26 27 27 28 28 28 27 27 26 26 27 28 28 29 30 31 31 31 31 31 32 33 35
34 32 30 29 29 28 28 28 27 27 28 28 28 31 37 43 46 47 46 44 42 37 29 23 21 20 20 20 21 23 24 25 25 25 25 25 26 26 27 27 28 28 29 29 30 30 30 30 30 30 31 31 32 33 34 35 35 36 36 35 35 35 37
36 34 32 31 30 29 29 27 26 27 28 28 28 28 31 36 43 47 47 46 44 38 30 25 23 22 21 22 21 21 22 22 22 22 24 25 26 28 29 29 29 30 30 30 31 32 32 33 34 34 34 34 34 35 36 36 37 38 38 38 37 38 40
37 35 33 32 31 30 29 28 27 28 28 28 29 28 28 30 35 42 47 47 44 39 32 27 25 24 23 24 23 22 23 22 21 21 23 25 26 27 27 28 29 30 31 32 33 34 35 35 36 36 37 37 36 35 35 35 36 37 36 36 37 38 41
38 36 35 33 32 31 29 27 27 28 29 30 30 29 29 28 29 34 41 44 43 39 33 28 27 26 26 26 26 26 26 26 24 24 25 26 26 26 26 27 29 30 31 32 32 33 34 34 35 35 36 37 37 37 36 35 36 37 37 38 39 40 41
39 38 36 34 33 32 30 28 27 28 30 31 31 30 30 29 28 29 35 41 42 39 34 30 28 28 27 27 28 28 28 27 27 27 27 27 28 28 28 28 29 29 29 29 30 31 32 33 34 34 34 35 36 37 38 39 39 40 42 42 43 44 45
40 39 38 36 34 34 32 29 28 28 29 30 31 31 31 30 28 28 31 37 40 40 36 32 30 30 29 28 28 27 28 28 29 29 29 30 30 31 31 31 31 30 31 32 33 34 35 36 36 37 37 37 38 40 42 43 44 44 45 46 47 48 49
40 40 39 37 36 35 33 31 30 29 29 29 30 30 31 31 29 28 29 33 38 39 37 34 32 32 31 30 29 29 30 31 32 33 33 33 33 34 35 35 35 35 35 36 37 38 39 40 40 41 41 42 43 44 45 46 46 46 47 50 52 52 53
40 39 38 37 37 36 34 32 31 30 29 30 30 30 31 31 30 29 30 32 36 38 38 36 34 33 33 32 33 34 34 35 36 36 37 36 37 38 38 39 40 40 39 40 41 42 43 43 43 44 45 46 48 48 47 47 47 48 50 53 54 54 54
39 38 38 37 37 36 35 33 32 31 30 30 31 31 31 31 31 30 31 32 36 38 39 38 37 36 37 37 37 37 38 39 39 40 40 40 40 41 42 42 43 43 43 45 45 45 45 45 46 47 48 50 50 49 48 49 49 50 52 55 56 56 56
37 37 37 37 37 37 36 34 33 33 32 32 32 32 32 32 32 32 32 33 36 39 41 41 41 41 41 41 40 41 41 42 43 44 43 43 43 43 44 44 45 46 47 48 47 46 47 48 49 50 51 51 51 51 51 52 53 53 55 56 58 59 60
37 36 36 36 36 36 36 35 34 34 34 34 34 33 33 33 33 33 33 33 35 37 40 42 43 44 44 44 43 44 45 46 46 47 47 47 47 46 46 47 48 49 49 49 48 48 50 51 52 52 52 52 53 54 55 56 56 57 57 59 60 61 63
38 37 35 35 35 35 36 35 35 34 35 35 36 35 35 35 35 35 35 36 36 37 38 40 41 43 43 44 45 46 47 48 49 48 48 47 47 46 47 48 49 49 50 50 51 52 54 54 54 54 53 53 54 56 57 58 59 60 60 60 61 62 63
39 38 37 35 34 35 35 34 35 35 35 36 37 37 37 37 37 37 37 38 38 38 39 39 40 41 41 42 44 44 45 45 46 45 45 45 45 45 46 47 49 50 52 53 55 56 56 56 55 55 55 55 56 58 59 61 62 62 62 61 61 62 63

ECMWFFLT1_500_spd_069.txt.gz
Wind_Speed
20 18 20 22 22 20 17 15 14 14 12 12 16 18 20 21 22 23 22 20 19 18 18 17 16 16 16 16 15 14 12 11 10 12 13 13 11 10 10 9 9 8 7 6 5 5 4 2 1 1 2 4 5 6 7 8 8 7 7 7 7 7 7
26 20 20 23 22 19 18 17 15 14 14 14 17 19 19 21 22 23 23 22 22 21 20 19 18 17 17 16 15 13 12 11 11 12 14 13 10 9 10 9 8 7 6 6 4 4 3 2 2 1 2 3 5 6 7 8 8 9 9 9 8 8 8
25 19 19 22 20 17 17 18 16 15 15 15 17 18 19 20 23 24 24 24 24 23 22 21 20 19 17 16 14 13 12 12 11 13 14 13 10 9 9 9 8 7 6 6 5 4 4 4 3 3 3 4 5 7 8 8 9 9 9 10 10 9 9
20 18 18 19 18 16 16 18 18 16 15 16 17 19 20 22 24 25 24 24 23 22 21 20 20 19 17 16 14 13 13 12 12 13 14 12 10 8 9 9 9 8 7 6 6 5 5 5 5 6 5 5 6 7 9 9 9 10 10 11 11 11 11
19 20 21 20 18 17 17 19 19 17 16 16 18 20 21 23 25 24 23 23 22 21 21 21 20 19 17 15 14 13 12 12 13 13 14 12 9 9 9 10 10 9 8 8 7 7 7 7 8 9 9 9 8 9 10 10 11 11 12 12 12 12 12
20 20 20 21 20 18 17 18 18 16 16 17 18 20 22 23 24 23 23 22 21 21 20 19 17 16 15 14 13 12 12 12 13 13 14 12 11 10 10 10 10 9 9 9 9 9 9 10 11 11 12 12 12 11 11 12 12 12 13 13 13 13 13
21 18 17 18 19 18 17 18 18 17 18 19 20 21 21 22 23 23 22 21 21 20 18 16 15 13 13 12 12 12 12 12 13 13 13 13 12 12 12 11 11 11 11 10 11 11 12 12 13 13 13 14 15 14 14 14 14 14 14 14 14 14 15
22 18 16 17 18 18 18 19 19 19 18 19 20 19 20 22 22 21 21 21 20 19 16 15 14 13 13 12 12 12 12 12 12 13 13 13 13 13 13 12 12 12 12 12 12 12 13 13 13 14 13 14 15 16 16 15 15 15 15 16 16 16 16
21 18 16 17 19 20 20 19 19 18 17 17 17 18 21 22 22 21 21 21 19 18 16 15 14 14 13 13 13 13 13 13 14 14 14 14 13 13 13 14 14 13 13 13 13 13 12 13 13 13 13 13 13 14 16 16 16 16 16 16 17 17 17
21 19 18 19 20 22 22 20 18 16 14 14 14 16 19 21 22 22 21 20 19 18 18 16 15 15 14 14 14 13 13 14 14 14 14 13 13 13 14 14 14 13 13 14 14 13 13 13 13 13 14 14 14 13 14 16 17 17 16 16 17 17 17
20 20 20 20 20 24 24 20 16 14 13 12 12 13 15 16 19 21 21 20 20 20 18 17 16 16 15 15 14 13 13 13 13 13 13 13 13 14 13 13 13 13 14 14 14 14 15 14 14 14 14 15 15 15 14 14 16 17 17 16 16 17 18
21 20 19 18 19 22 22 18 16 15 13 12 12 13 13 13 16 19 20 20 20 19 18 17 16 15 15 14 14 13 13 13 13 13 14 14 14 13 13 13 13 13 14 15 15 15 15 15 15 15 15 15 16 16 16 15 15 16 17 17 16 17 18
21 20 18 13 16 22 22 19 18 16 15 15 14 13 12 12 13 16 18 18 19 18 17 16 15 14 14 14 14 14 14 14 14 14 14 14 14 14 13 13 13 14 14 15 15 15 15 15 15 15 16 16 15 15 16 16 15 15 16 17 16 16 17
19 21 19 11 12 21 24 21 19 17 17 17 17 15 14 13 13 14 15 16 16 16 15 14 14 14 14 14 14 14 15 15 15 15 15 14 14 14 14 14 14 14 15 15 14 14 14 15 15 15 16 16 15 14 14 15 15 14 15 15 16 16 17
21 21 20 14 9 15 19 19 18 17 16 16 16 16 15 15 14 13 12 12 12 12 12 12 12 12 13 14 14 14 15 16 16 16 15 15 14 14 15 15 15 15 15 14 14 14 14 14 15 15 16 15 14 14 13 13 14 14 13 13 14 14 16
24 23 22 17 11 9 12 14 16 16 15 15 14 14 14 15 15 12 11 11 9 9 9 8 8 8 9 11 13 14 16 16 16 16 16 15 15 16 17 17 16 15 14 14 15 14 14 14 14 15 15 14 13 13 13 13 13 12 12 11 11 12 13
26 25 23 19 15 11 9 10 13 14 14 15 14 13 13 15 15 14 14 12 11 10 9 7 6 5 7 9 11 14 15 16 17 17 17 17 18 18 18 18 17 16 15 15 15 15 14 14 13 14 14 14 13 12 12 12 11 10 10 10 10 10 10
25 25 23 20 18 15 12 11 12 14 16 16 16 15 14 15 16 16 15 14 13 12 11 9 6 5 7 8 11 13 14 16 17 18 18 19 19 20 20 19 18 17 16 16 16 15 15 14 13 13 13 13 12 11 10 10 9 9 9 9 8 8 8
23 24 23 22 21 20 18 16 15 17 19 18 18 17 15 16 16 15 15 15 14 14 12 10 8 7 7 8 10 12 13 15 17 18 19 20 20 21 21 20 18 17 16 16 16 15 15 14 13 12 11 11 11 9 9 8 8 8 8 8 7 7 7
22 23 23 23 22 21 21 21 20 19 20 19 19 19 18 18 17 16 16 15 14 14 12 11 10 9 9 10 10 12 14 15 16 17 19 20 21 22 21 20 18 16 16 16 15 14 14 13 13 11 9 9 9 8 8 7 7 8 8 8 8 8 8
20 22 23 22 21 19 19 19 19 18 18 18 18 19 19 19 18 18 17 16 15 14 13 13 12 11 12 13 12 12 14 15 16 17 18 19 20 20 19 18 17 15 15 15 15 14 13 12 11 10 9 9 8 8 7 7 7 8 8 9 10 10 10
19 20 21 20 20 19 18 18 17 18 19 20 20 20 20 19 20 19 19 18 17 16 15 15 14 13 14 16 15 14 14 14 16 18 19 19 19 18 17 17 16 15 15 15 15 14 12 11 11 10 9 9 8 7 7 8 8 9 10 11 12 13 13
19 19 19 18 19 18 18 18 17 18 20 20 20 21 21 20 20 20 20 20 19 18 17 16 15 15 16 18 17 16 16 16 16 17 19 20 19 17 17 17 17 17 16 15 14 13 12 12 11 10 9 8 8 7 8 9 9 10 11 12 14 16 17
20 20 20 19 19 18 18 18 17 18 19 19 19 19 20 20 20 20 20 20 20 20 19 18 17 17 18 19 20 19 19 19 17 16 17 19 20 18 17 17 17 17 16 14 13 13 12 12 11 10 9 8 9 9 10 11 12 13 13 15 17 18 19
24 24 23 22 21 18 15 15 15 16 16 16 17 18 18 19 20 20 20 20 21 21 20 19 20 20 20 21 21 21 21 21 19 17 16 18 20 20 19 18 17 17 16 14 13 12 13 12 10 9 9 9 10 11 12 13 15 16 17 18 20 21 22
29 27 26 25 22 18 15 14 13 14 14 14 16 18 18 20 21 21 21 21 21 20 20 21 23 22 22 22 22 22 22 21 21 19 18 17 19 21 20 19 18 16 15 14 13 13 13 11 10 9 10 11 12 13 14 15 17 18 20 22 23 24 25
33 31 30 27 23 19 17 16 15 15 16 16 17 19 20 20 21 21 22 23 22 21 22 24 25 25 25 25 24 24 23 23 22 22 20 18 19 21 21 19 18 16 15 15 15 14 13 12 11 11 12 13 15 16 17 18 19 21 23 24 25 27 28
37 35 33 29 24 22 21 19 18 18 18 18 18 19 19 19 20 21 23 23 22 23 26 27 27 27 27 27 26 25 24 24 24 23 22 20 18 20 21 19 18 17 17 16 16 15 14 14 14 15 15 17 18 19 20 22 23 25 26 26 27 28 29
37 36 35 32 27 24 22 21 21 20 19 18 19 19 18 19 19 20 22 23 24 26 28 29 29 29 29 29 29 27 26 26 25 25 24 22 20 20 22 21 20 19 18 18 18 17 17 17 18 18 19 19 20 21 22 24 25 26 26 25 26 27 28
38 37 37 35 30 27 25 24 24 24 22 21 20 20 19 19 20 21 22 22 24 27 28 29 30 31 32 32 31 30 29 28 27 26 26 24 22 21 23 22 22 21 20 20 19 18 18 19 19 20 20 20 21 21 22 24 25 26 25 25 27 28 29
39 39 39 38 35 32 30 28 26 26 25 24 22 22 22 21 21 21 21 21 23 25 26 27 29 30 32 33 33 32 31 30 28 27 27 26 24 22 23 23 23 23 22 21 20 20 20 20 20 21 21 22 23 23 25 27 29 28 27 27 29 30 31
39 39 38 38 37 36 34 32 29 28 27 26 25 24 24 23 23 22 22 22 23 24 24 25 26 27 30 32 33 34 33 32 31 30 30 29 26 24 24 24 24 24 24 23 22 22 22 22 22 22 23 24 25 26 29 31 31 30 30 30 31 32 33
40 38 38 38 38 38 37 36 34 31 29 28 28 27 26 25 25 24 24 24 24 24 24 24 24 25 28 30 32 34 34 34 33 32 32 30 28 26 26 27 27 27 26 25 25 25 25 24 24 24 25 26 27 30 32 33 33 33 33 34 35 35 36
40 40 39 40 40 41 40 39 37 35 32 31 30 29 28 28 27 26 26 27 26 26 26 25 24 25 27 28 30 32 34 35 35 34 33 32 29 28 28 30 30 29 27 28 28 27 27 27 27 27 27 29 31 32 33 34 34 35 36 37 38 39 39
41 42 42 41 42 43 42 41 40 38 35 33 32 31 30 29 28 28 28 28 28 27 27 26 26 26 27 28 29 30 32 34 34 33 34 34 31 30 30 31 31 30 29 30 30 29 29 29 29 30 31 32 34 35 35 36 36 37 38 40 41 42 42
42 44 43 42 42 43 42 42 42 40 38 35 34 33 32 31 30 29 30 29 29 29 28 28 27 27 27 28 29 30 31 32 31 32 34 34 32 32 33 33 32 32 31 31 31 31 31 31 32 33 34 35 36 36 37 38 39 40 41 42 43 45 46
43 43 43 42 43 44 43 42 42 41 39 37 36 35 34 33 31 31 31 31 31 31 30 29 28 28 28 28 29 30 31 31 31 32 34 34 33 34 35 35 34 34 34 33 33 33 33 34 35 36 37 37 38 39 40 41 42 43 44 45 47 48 49
43 43 42 42 43 44 44 43 42 41 40 39 38 37 36 35 34 33 33 34 34 33 32 31 30 29 29 29 30 30 31 31 32 34 35 36 36 37 36 36 36 35 35 35 35 35 36 37 38 38 38 39 40 41 42 43 44 46 47 48 50 51 52

ECMWFFLT1_500_spd_072.txt.gz
Wind_Speed
15 16 14 14 14 14 15 14 11 11 10 8 9 12 13 14 16 18 18 18 17 17 18 18 19 19 19 19 18 17 15 15 15 15 16 15 13 12 12 12 12 11 11 10 10 9 8 7 5 5 5 5 6 6 7 8 9 9 9 9 9 8 8
18 19 16 15 14 14 14 13 12 12 10 9 10 12 14 14 16 17 18 19 18 18 20 20 20 21 21 20 19 17 17 16 17 17 16 15 13 12 13 12 11 12 11 11 11 9 7 6 4 3 2 2 3 4 5 7 8 9 9 10 10 10 10
18 21 19 17 14 14 13 12 13 13 12 11 12 13 14 14 15 16 18 20 20 20 21 22 22 22 22 21 19 18 17 17 18 18 17 16 14 13 14 13 12 11 11 11 11 9 7 6 4 3 1 1 2 3 5 6 8 9 9 9 10 10 11
19 19 20 18 16 16 14 12 13 13 13 13 13 14 15 15 16 18 19 21 20 20 21 22 22 23 23 22 21 19 18 18 19 19 19 17 15 14 14 14 13 12 12 11 11 10 8 6 5 4 3 3 4 5 6 7 8 9 10 10 10 10 11
20 19 19 19 19 20 16 14 13 13 14 14 14 15 16 15 17 18 19 20 20 19 21 22 22 22 22 22 21 20 20 20 21 20 19 17 15 15 16 15 14 13 12 11 10 9 8 6 5 5 5 5 6 7 8 9 9 11 11 12 12 11 11
20 20 21 22 23 21 17 15 13 14 16 15 14 15 15 15 16 16 17 18 19 19 19 20 20 20 20 20 20 20 20 21 21 20 18 17 16 17 17 17 15 14 12 10 10 9 8 7 7 7 8 8 9 9 10 11 11 12 13 13 13 13 13
19 20 22 25 25 22 18 16 15 16 17 17 16 15 14 15 16 16 16 16 17 18 17 17 17 17 17 17 18 19 20 20 20 20 18 17 17 17 17 17 15 14 13 11 10 10 9 9 9 10 10 10 11 11 12 12 12 13 14 14 15 14 14
20 21 24 26 25 22 19 17 17 19 20 19 17 16 14 14 15 16 15 16 16 17 16 17 17 16 17 17 18 19 20 21 21 20 20 19 18 18 18 17 16 15 14 13 12 11 11 11 11 12 12 12 12 12 13 13 13 14 14 15 15 15 15
23 23 25 26 24 22 20 18 19 22 22 19 17 16 15 14 14 15 15 16 17 16 16 17 17 18 18 18 18 20 21 21 21 21 21 20 19 19 19 18 17 16 15 14 14 13 13 12 12 12 12 12 12 12 12 13 14 14 14 15 15 15 15
24 24 25 26 24 21 20 20 22 24 22 19 17 15 15 14 14 15 16 17 17 17 17 17 17 18 18 19 20 20 20 21 21 21 21 21 21 20 19 18 18 17 16 15 14 13 13 12 11 11 10 11 11 11 12 13 14 14 14 14 14 14 15
21 23 25 26 25 23 22 23 24 22 20 17 15 14 14 14 15 15 16 17 18 19 19 18 17 17 18 20 20 20 20 20 21 21 21 21 21 19 18 18 17 16 15 14 13 12 12 11 10 10 10 10 11 11 12 13 14 15 15 14 13 13 13
20 23 26 27 27 25 23 23 23 20 18 17 15 14 13 15 16 16 17 19 20 20 19 18 17 17 18 19 19 18 19 19 20 21 21 21 19 18 17 17 16 15 14 13 12 12 11 11 10 10 11 11 11 11 12 12 13 15 15 15 13 12 11
21 23 26 27 27 25 23 23 22 19 18 18 17 15 15 16 17 18 18 20 20 20 20 18 18 17 17 17 17 17 18 18 19 20 20 19 18 18 18 17 15 14 13 12 11 11 11 11 11 11 11 12 11 11 12 12 13 13 14 15 14 12 11
22 24 25 25 25 25 23 23 23 21 21 20 18 17 16 16 18 18 18 19 19 19 20 19 18 18 17 17 16 16 17 18 19 19 19 19 18 18 17 16 15 14 13 11 10 10 10 10 10 11 11 12 12 12 12 12 12 13 13 14 14 13 11
22 22 22 22 23 23 23 23 25 24 23 22 20 19 17 16 16 16 16 16 17 19 20 20 20 20 19 17 17 17 17 18 18 19 19 19 18 18 17 16 15 13 12 11 10 9 10 10 10 11 11 12 12 12 12 12 12 12 12 12 12 12 11
21 20 19 20 22 22 23 25 27 26 23 22 21 19 17 15 13 12 11 11 13 16 18 19 19 20 19 19 18 18 18 17 17 17 18 18 18 18 17 16 14 13 12 11 10 10 10 10 11 11 12 12 12 12 12 12 11 11 11 10 10 10 10
20 19 17 19 21 22 24 26 27 25 22 21 20 19 16 14 13 11 10 10 11 14 16 17 16 17 17 18 19 19 18 17 17 17 17 17 18 17 17 16 14 13 13 12 11 10 10 10 11 11 12 12 12 12 11 11 11 10 9 9 8 8 8
19 19 17 17 20 21 23 26 26 24 21 20 19 18 16 15 14 13 11 11 11 13 14 15 14 14 15 16 17 17 17 17 17 17 17 17 17 17 16 16 15 14 14 12 12 12 11 10 11 12 12 12 12 12 11 11 10 9 8 7 7 7 7
17 18 17 17 17 19 22 24 24 23 22 21 19 18 17 17 16 15 14 14 14 14 13 13 14 13 13 13 13 13 14 15 16 16 17 17 18 18 17 16 16 15 15 14 14 13 12 11 11 12 12 12 12 12 10 10 9 8 8 8 7 8 7
16 17 17 17 16 18 22 23 23 23 24 23 21 20 19 20 19 19 19 19 19 17 15 15 15 14 13 11 10 11 11 11 12 13 15 17 17 18 17 17 16 17 16 16 15 14 13 13 13 12 12 12 12 11 10 9 9 9 9 9 9 9 8
15 15 16 18 18 19 21 24 24 25 25 24 24 24 23 23 23 23 23 23 22 20 19 18 18 17 15 13 11 11 10 10 9 10 12 14 15 15 16 17 17 18 17 16 16 16 16 15 13 12 12 12 12 11 10 10 11 10 10 10 9 9 8
14 13 14 17 19 19 20 21 23 25 26 26 26 25 25 24 25 25 25 25 24 23 21 20 19 18 17 16 14 13 12 11 11 11 11 13 13 13 14 16 17 18 18 17 17 17 17 15 13 13 13 13 13 12 12 12 12 11 11 11 10 9 8
17 16 16 18 20 21 20 21 23 25 27 28 27 26 25 26 26 26 26 26 25 23 22 21 19 18 17 17 16 15 14 13 12 12 12 12 12 12 14 16 18 19 19 18 18 17 16 15 15 15 14 13 13 13 13 13 12 12 11 11 10 9 9
21 19 19 19 21 22 22 21 22 22 23 25 27 28 28 27 27 27 26 26 24 23 22 20 18 17 16 16 17 17 17 16 15 14 14 13 12 13 14 17 19 20 20 20 19 18 18 18 17 15 14 14 14 14 14 13 12 11 11 11 10 10 10
25 22 21 20 20 21 22 22 21 20 20 22 26 28 29 28 27 27 26 25 24 23 22 20 18 17 17 17 18 19 19 19 18 17 16 14 13 14 15 17 19 21 21 21 20 20 20 19 17 16 15 15 16 15 14 13 12 11 11 11 12 12 13
28 25 23 21 21 21 21 21 21 21 21 22 24 26 27 26 26 26 26 26 25 24 22 21 20 20 19 19 19 20 21 21 20 19 17 16 15 15 15 17 20 22 22 21 21 21 21 20 18 17 17 18 18 16 14 13 13 12 12 13 14 15 17
28 26 24 23 22 22 21 20 20 20 21 22 23 24 25 25 24 24 24 25 24 23 22 23 23 23 22 20 20 21 22 22 22 20 19 18 17 16 15 16 18 21 22 22 22 22 22 21 20 20 20 20 19 17 16 15 14 14 14 15 17 18 19
31 28 27 25 23 23 23 21 19 19 19 21 23 25 25 26 25 24 24 23 21 21 23 25 25 24 22 21 21 23 23 23 23 22 21 20 19 18 16 15 16 19 21 22 23 23 23 22 21 21 21 21 20 18 18 17 17 17 18 18 19 21 21
34 32 30 28 25 24 23 21 19 19 19 20 22 24 25 26 27 27 26 25 24 24 26 26 25 24 23 22 22 24 26 25 24 24 24 22 21 19 17 15 15 17 20 21 22 23 23 22 22 22 22 21 20 20 20 20 20 20 20 20 21 22 23
35 33 32 31 28 26 25 23 20 19 20 20 21 22 23 24 25 27 28 28 29 30 29 28 27 27 26 25 24 26 27 28 27 26 26 25 23 21 20 18 16 17 19 21 22 23 23 22 23 23 23 22 22 22 22 22 21 21 20 21 22 23 24
37 34 32 31 30 28 27 25 22 19 19 20 21 21 21 21 22 24 25 28 30 32 31 31 31 30 30 29 28 28 29 30 30 29 28 28 27 25 23 21 19 17 19 21 23 23 23 23 23 24 24 24 24 24 24 23 22 22 22 23 24 24 25
39 37 35 33 31 29 28 28 25 22 21 21 22 22 22 22 22 22 23 25 28 29 30 31 31 30 31 31 31 32 32 33 33 33 32 31 30 29 26 24 22 20 19 21 23 24 24 24 25 25 25 26 26 26 25 24 24 24 24 25 25 26 27
39 39 38 35 34 33 33 32 31 28 25 24 23 23 24 23 23 23 24 25 26 27 27 28 28 28 29 30 31 33 33 34 35 36 36 35 34 32 30 28 25 23 21 21 23 24 25 26 26 26 27 27 28 27 26 25 26 26 26 27 28 29 30
39 41 41 40 39 38 38 38 36 34 31 28 25 25 26 25 24 24 24 25 26 27 27 27 27 27 28 29 30 31 32 33 35 36 37 37 36 35 34 32 29 26 23 23 23 25 26 27 27 28 29 29 30 29 29 28 28 28 29 30 31 32 33
39 43 43 42 42 42 42 41 40 38 36 32 29 28 27 27 26 25 25 25 26 27 27 27 27 28 28 28 29 30 31 32 33 34 36 36 37 37 36 35 32 29 26 25 26 26 27 28 29 30 31 32 33 32 32 31 31 31 32 33 33 34 34
39 41 40 39 40 41 42 42 41 40 39 36 33 31 29 29 28 27 26 26 27 27 28 28 28 28 28 28 28 29 30 30 31 32 33 34 36 37 38 37 35 33 30 29 29 30 30 31 32 33 34 35 35 35 34 34 34 35 35 35 35 36 36
39 38 37 38 38 39 41 42 42 41 40 38 36 34 32 31 31 30 29 29 29 29 29 29 29 29 28 28 29 29 30 30 30 30 31 33 35 37 37 38 37 36 34 33 33 33 34 34 35 36 37 38 37 36 36 36 37 37 37 37 38 38 38
42 39 39 40 40 40 41 42 42 41 40 39 38 36 34 33 33 32 32 31 30 30 30 30 30 30 29 29 29 29 30 31 31 31 31 32 34 36 37 38 38 38 38 36 35 35 36 37 38 38 39 39 39 39 39 39 39 39 39 40 40 40 40

ECMWFFLT1_500_spd_075.txt.gz
Wind_Speed
11 14 19 20 20 18 15 12 10 8 7 7 8 10 13 16 18 19 18 18 18 18 18 16 16 17 18 19 20 20 18 17 18 18 19 18 17 16 16 15 14 13 14 14 13 13 13 12 12 11 10 10 9 9 9 9 10 11 11 11 11 11 10
16 16 18 20 20 19 16 15 13 11 9 9 9 10 12 16 19 20 19 19 19 20 19 17 17 18 20 21 21 20 19 18 19 20 20 19 17 17 17 16 14 14 15 15 14 13 13 11 10 8 7 6 6 6 6 6 7 7 8 9 10 10 11
22 19 18 20 21 19 17 16 14 12 11 11 10 10 11 15 19 21 21 20 20 21 20 18 19 20 22 22 21 21 20 20 21 21 21 20 19 19 18 17 15 15 14 14 14 14 12 11 9 7 5 3 3 2 3 4 4 5 6 7 8 8 9
24 21 19 20 22 20 18 17 15 13 13 11 11 12 12 15 19 21 21 20 21 21 20 19 20 22 23 23 22 21 21 21 21 22 22 22 20 20 19 18 16 15 15 15 14 13 12 10 8 6 4 2 1 1 2 3 4 5 6 7 8 8 9
20 21 21 21 23 23 21 18 15 14 12 10 11 13 13 15 19 21 20 20 20 21 21 21 22 22 23 22 22 22 22 22 23 23 23 22 21 19 19 18 17 17 17 16 14 13 12 10 8 7 5 4 4 4 5 5 6 6 7 8 9 9 10
17 20 21 21 23 24 23 19 16 15 14 11 11 13 15 15 17 19 20 20 21 21 21 20 20 21 22 22 22 22 22 23 24 24 23 22 21 20 20 19 19 18 18 16 15 13 12 10 9 8 7 6 6 6 7 7 8 8 8 9 9 10 11
18 19 20 21 21 23 24 22 19 18 17 15 14 16 17 16 17 20 21 20 21 21 20 17 17 19 20 21 21 21 22 22 23 23 23 22 21 21 21 21 20 19 18 17 15 14 12 11 10 9 8 8 8 8 8 9 10 10 10 9 10 11 11
19 20 20 20 20 21 24 24 22 21 20 18 17 16 16 16 18 21 21 21 21 20 19 16 15 16 18 18 19 20 21 23 23 23 23 22 22 22 22 21 20 19 18 18 16 15 13 12 11 10 10 9 9 9 9 10 11 11 11 11 10 10 11
22 22 22 22 21 21 24 25 24 24 22 19 17 16 15 16 19 20 20 21 21 20 18 17 16 17 18 18 19 20 22 23 24 24 23 22 22 22 22 22 21 19 18 18 17 16 14 14 13 12 11 11 11 10 10 11 11 11 12 12 10 10 10
24 25 25 25 23 23 26 28 28 27 24 21 18 17 17 17 19 21 22 21 21 20 20 19 18 19 19 20 20 21 22 23 24 24 23 22 22 22 22 22 21 20 19 18 17 16 16 15 14 13 12 12 12 12 12 12 11 11 11 11 11 10 9
26 28 30 31 29 27 28 31 30 28 25 22 19 18 18 18 19 21 22 22 21 21 21 20 20 20 20 21 21 21 21 22 23 23 23 23 23 23 22 22 21 20 19 19 18 17 17 16 15 14 13 13 13 12 12 12 11 12 12 11 11 10 9
26 31 34 35 34 31 30 32 31 28 25 22 20 19 19 20 21 21 22 22 23 23 22 22 22 21 21 22 21 21 21 22 22 23 24 24 24 24 23 22 21 21 20 20 19 18 17 16 15 15 14 14 13 12 12 11 11 12 12 12 11 11 10
26 32 35 36 35 33 32 34 32 28 25 23 20 20 20 21 22 22 22 23 23 24 23 23 23 23 23 23 23 23 23 23 24 25 25 25 25 25 24 23 22 22 22 21 20 19 17 17 16 16 16 15 13 12 12 12 12 12 13 13 13 12 11
26 31 34 35 35 34 35 35 32 28 26 23 21 21 21 23 23 22 22 23 23 23 23 23 23 24 24 24 24 24 24 25 26 27 26 26 25 24 23 23 23 23 22 21 20 19 18 17 17 17 16 15 14 13 13 12 12 13 13 14 14 13 12
24 28 32 34 34 34 36 34 30 28 26 23 22 23 24 24 24 23 23 23 23 22 22 23 23 24 24 24 24 24 25 26 27 27 26 25 24 24 23 23 23 23 22 21 20 19 18 17 17 16 16 15 14 13 12 12 12 13 13 14 14 13 12
24 26 29 31 33 35 34 31 28 28 27 25 24 25 26 25 23 22 22 22 22 22 22 23 23 23 23 24 24 25 26 26 26 26 25 24 24 24 24 24 24 23 22 21 20 19 18 17 16 16 16 15 14 13 12 12 13 13 13 13 13 13 12
24 26 27 30 33 35 33 30 29 29 28 27 26 26 25 24 21 19 20 21 21 22 22 23 23 24 24 24 25 26 25 25 25 25 25 25 25 25 25 25 25 24 23 22 20 19 18 17 16 15 16 16 15 13 12 13 13 12 12 12 12 12 12
20 24 27 29 31 32 31 31 31 31 30 28 27 27 25 23 21 20 18 19 20 21 22 23 24 24 25 25 26 26 25 24 24 24 24 25 25 26 26 26 25 24 23 22 21 19 18 16 16 16 16 16 15 14 13 14 13 12 12 12 11 11 11
16 19 24 26 26 29 32 32 31 30 31 30 28 27 25 23 22 21 18 18 19 20 20 21 22 23 24 25 26 25 24 24 23 23 23 23 24 25 26 25 24 23 22 21 20 19 17 16 16 16 16 15 15 15 15 15 14 12 12 12 11 10 10
14 16 21 23 26 29 31 30 29 30 32 30 28 27 25 24 23 22 20 20 20 21 21 20 20 20 21 22 22 22 22 22 22 22 22 22 23 24 23 22 22 22 22 20 19 18 17 17 16 17 17 17 17 16 15 15 14 13 13 12 11 10 9
14 15 20 25 28 30 30 28 29 31 31 29 29 29 28 27 26 24 23 22 21 22 23 23 21 20 18 17 17 18 18 19 19 20 20 21 21 21 20 20 21 21 20 20 19 18 18 18 18 18 19 18 18 17 16 15 15 15 14 13 12 11 10
15 16 20 26 29 30 29 29 31 31 29 28 30 31 30 28 28 26 25 24 23 23 23 24 22 20 18 16 15 15 15 15 16 16 17 17 17 17 17 18 19 20 20 20 20 19 19 20 19 19 19 19 19 19 17 17 17 17 16 15 14 12 11
19 19 22 27 29 30 30 31 32 33 31 31 31 31 30 31 30 30 28 27 26 24 24 24 23 21 19 17 15 15 15 14 14 14 14 14 14 14 15 16 18 19 20 20 21 21 21 22 22 21 21 22 21 20 20 19 19 19 18 17 16 14 13
23 23 26 30 31 32 33 34 34 35 35 35 34 32 32 32 32 32 32 31 29 28 26 25 24 22 20 18 17 17 17 16 16 15 14 13 13 14 15 16 18 19 20 20 21 22 23 24 24 24 23 23 22 21 22 21 21 20 19 18 18 17 16
25 24 27 31 33 34 37 37 37 38 38 38 38 37 36 35 34 33 33 32 32 31 29 28 26 24 22 21 20 19 19 19 18 17 16 15 14 15 15 17 18 20 20 21 22 23 25 26 26 25 25 24 23 23 23 22 21 20 19 19 19 18 17
27 25 25 28 32 35 38 40 40 40 41 41 41 40 40 38 37 35 35 34 34 34 32 30 28 28 27 25 23 22 22 22 21 20 20 18 17 17 17 17 18 20 21 21 22 24 26 27 26 26 26 26 25 25 24 22 21 21 21 21 21 19 18
29 28 27 27 29 32 35 38 40 41 42 42 42 40 40 39 38 38 37 37 37 36 35 34 33 32 31 29 27 26 25 24 23 23 23 22 21 20 19 19 19 19 20 22 23 25 26 27 27 27 27 27 27 26 25 24 23 23 23 22 21 20 18
32 31 30 29 28 29 31 33 36 38 39 39 39 39 40 39 38 38 38 38 38 38 38 38 37 35 33 31 30 28 27 27 26 25 25 25 24 22 21 20 20 20 21 22 24 25 26 27 28 28 28 28 28 27 26 26 25 24 24 23 21 20 18
35 34 33 32 30 29 30 30 31 32 34 35 36 38 40 40 39 38 38 38 38 38 38 38 38 36 34 33 31 29 28 28 28 27 27 26 25 24 23 22 21 21 21 22 23 25 27 27 28 29 29 29 29 28 27 26 25 25 24 23 21 19 18
35 35 34 33 31 30 30 30 30 31 33 35 36 38 40 41 40 39 39 38 38 38 38 38 39 37 36 34 32 30 30 29 29 29 28 28 27 26 25 24 23 22 21 21 22 23 26 28 28 29 30 30 29 28 27 27 27 26 24 23 21 20 19
34 34 34 34 33 31 29 29 30 31 32 33 34 35 37 39 40 40 40 39 39 40 40 41 41 39 37 36 34 32 32 31 30 30 30 30 30 29 28 27 25 23 22 21 20 20 22 26 29 30 30 30 29 29 29 29 28 27 25 24 23 22 23
34 33 33 33 33 32 29 29 28 29 29 29 30 31 32 35 38 39 40 41 41 41 41 41 41 40 39 38 36 35 35 34 32 31 32 33 33 33 32 30 28 25 23 21 20 19 19 23 27 30 31 31 30 29 30 30 29 28 27 26 25 25 26
36 35 33 33 34 33 30 28 28 28 27 27 27 28 29 31 34 37 39 42 43 43 44 43 43 42 41 40 40 39 38 37 36 35 35 35 35 35 34 33 31 28 25 23 22 20 19 21 26 29 30 31 30 30 30 30 30 29 28 28 28 28 28
37 37 36 35 36 35 33 31 29 28 28 27 27 28 28 29 31 34 37 39 42 43 45 45 45 45 44 44 44 44 43 41 40 39 37 37 37 37 36 36 34 32 29 26 25 23 22 21 24 27 30 31 31 30 30 30 31 30 30 30 30 31 31
38 38 39 39 38 38 37 34 32 30 30 29 29 29 29 29 30 31 32 35 37 39 41 42 43 44 44 45 45 45 45 44 44 43 41 40 39 39 39 38 38 36 35 32 29 28 26 24 24 26 29 31 31 30 30 30 31 32 32 33 33 33 34
42 41 40 40 41 40 39 37 35 34 33 33 33 32 30 30 29 29 30 31 32 34 36 37 39 40 40 41 42 42 43 42 42 42 41 40 40 41 41 41 41 40 39 38 35 33 30 28 26 26 28 30 31 31 32 32 33 34 34 34 35 35 35
46 44 43 42 41 40 40 39 38 37 37 37 37 35 33 31 29 28 29 30 30 31 32 33 34 35 35 36 37 37 38 38 38 38 38 38 38 39 40 41 42 42 42 42 40 38 35 33 31 30 30 30 31 32 33 34 35 35 36 36 36 37 37
49 47 46 45 42 40 41 41 40 40 40 39 39 38 35 33 30 28 29 30 30 31 31 31 31 32 32 32 32 33 33 33 33 33 34 35 35 36 37 38 40 42 43 43 43 42 40 38 35 34 33 32 33 34 35 36 37 37 37 38 38 38 39

ECMWFFLT1_500_spd_078.txt.gz
Wind_Speed
22 22 23 23 23 22 20 17 16 14 11 9 7 7 8 10 12 16 17 17 17 18 19 20 19 19 20 21 21 21 19 17 17 18 20 20 19 17 15 15 15 14 13 13 13 14 16 17 17 17 17 16 15 15 14 14 13 13 14 14 14 14 14
27 26 25 24 24 24 22 21 19 16 13 10 10 9 8 9 11 15 17 17 18 18 19 21 21 20 21 22 23 22 20 19 19 20 21 20 19 18 17 16 15 14 13 13 14 15 16 17 17 16 16 15 13 12 11 10 10 10 10 10 11 11 12
28 27 27 26 25 24 23 23 21 18 15 13 12 11 9 9 12 15 18 18 18 18 19 21 21 22 23 24 23 22 21 20 21 21 21 21 20 20 19 18 16 14 14 15 16 16 16 15 14 14 13 11 10 9 8 6 6 6 6 7 7 8 9
29 26 26 27 26 26 26 26 24 20 17 15 13 13 12 12 14 16 18 19 19 19 19 20 22 23 25 25 24 23 22 22 22 23 23 22 22 21 20 19 17 15 15 17 17 17 16 14 12 11 9 8 7 6 4 3 3 3 3 4 5 5 6
30 26 25 26 28 29 29 29 25 22 19 17 16 16 15 15 16 17 19 20 20 20 20 22 25 26 26 26 25 25 24 24 25 25 25 23 22 21 21 20 17 16 17 18 18 17 16 14 11 9 7 6 5 4 3 2 1 0 1 2 3 4 5
30 27 26 27 28 29 30 29 26 23 21 19 18 18 18 17 16 16 18 20 21 21 21 23 24 26 26 26 26 26 25 26 27 27 26 24 23 22 22 21 19 17 18 18 18 17 16 13 11 8 7 6 5 4 4 4 3 3 2 3 3 4 4
29 29 29 28 28 28 28 27 25 24 23 22 22 21 21 20 18 17 19 20 21 21 21 22 23 24 25 26 27 27 26 27 28 27 26 24 23 23 23 22 19 19 19 19 18 17 15 13 11 10 8 7 7 6 6 5 5 4 4 4 4 4 4
27 28 28 27 26 27 28 27 25 24 24 24 24 23 22 20 19 19 19 20 22 22 22 23 23 23 25 26 26 26 27 28 28 27 26 25 25 25 24 22 21 20 20 19 18 17 15 14 13 11 10 9 9 9 8 7 6 6 5 5 5 5 5
26 26 25 24 24 25 27 27 26 25 25 25 25 23 22 20 19 18 19 21 22 23 23 24 24 23 25 26 25 26 27 28 28 27 26 26 26 26 25 24 23 21 21 21 19 18 17 15 14 13 12 11 11 10 10 9 9 8 7 6 5 5 5
25 26 26 25 25 26 27 29 30 29 27 26 26 25 23 21 20 19 20 22 23 23 25 26 25 24 24 24 25 26 27 28 28 27 26 27 27 27 27 26 25 23 22 22 20 19 18 17 15 14 13 13 13 12 12 11 10 9 8 7 5 5 5
26 26 26 26 26 27 29 31 31 31 30 28 27 26 23 22 22 21 21 23 23 24 27 27 26 24 24 24 25 25 26 27 27 27 27 27 28 28 27 27 26 24 24 23 21 20 19 18 17 16 15 15 15 14 14 13 11 10 9 8 6 5 5
30 30 29 29 28 28 30 31 31 32 32 30 29 27 24 23 23 22 22 23 25 26 28 28 27 25 25 24 25 25 26 27 27 27 27 28 28 28 28 27 26 25 25 24 23 22 20 19 19 18 17 17 17 16 15 13 12 11 10 9 8 7 7
34 35 34 32 31 30 31 31 32 33 32 32 31 28 24 24 25 24 23 24 26 28 29 29 28 27 26 25 25 26 26 26 26 27 28 28 28 29 28 27 27 26 25 25 24 23 22 21 21 20 19 19 18 16 15 13 12 11 11 10 10 10 10
35 36 36 36 36 35 33 33 33 32 32 32 32 29 26 26 27 26 25 25 27 29 30 30 30 29 27 27 26 26 26 26 27 28 29 29 29 29 29 28 27 27 26 26 25 24 23 23 22 21 20 19 18 16 14 12 11 12 12 13 13 13 12
31 34 35 36 38 37 36 35 33 31 31 32 32 29 26 27 29 28 27 27 29 31 31 31 31 30 28 27 27 26 27 28 29 29 30 30 30 29 29 28 28 28 27 26 26 25 25 24 23 21 20 19 17 15 14 12 12 13 15 15 15 15 14
27 30 33 34 35 36 37 37 34 32 32 32 32 29 27 28 30 29 28 28 29 31 32 32 31 30 29 28 28 28 29 30 30 30 30 30 30 30 30 30 29 28 27 27 27 27 26 24 22 20 19 18 17 16 15 14 15 16 17 16 16 16 15
24 27 30 32 33 34 37 38 37 36 35 34 32 29 27 28 29 29 29 29 30 31 31 31 30 29 28 28 29 30 31 31 31 31 31 30 30 31 31 31 30 29 28 28 28 27 25 23 21 20 19 18 18 17 16 16 17 18 17 16 16 16 16
25 26 27 29 30 32 34 36 38 39 38 35 32 30 28 29 30 30 30 29 29 30 30 29 29 28 28 29 30 30 31 31 31 31 30 30 31 31 32 31 31 30 29 29 28 27 25 22 21 20 19 19 18 18 17 17 19 18 17 16 16 16 16
25 26 25 26 29 30 32 35 38 39 37 34 32 29 28 30 30 30 29 29 29 29 29 28 28 28 29 29 29 30 30 30 30 30 30 30 30 31 31 30 30 29 29 29 28 26 24 22 21 20 20 19 19 18 18 19 19 18 16 16 16 16 16
25 26 27 28 28 28 32 36 37 36 35 33 31 28 29 31 31 30 30 30 30 29 29 29 28 29 29 29 29 29 29 29 29 29 29 29 30 30 29 29 29 28 28 28 26 25 23 22 22 21 20 19 19 19 19 20 19 17 16 16 16 16 16
25 26 27 27 26 28 32 34 33 33 34 33 31 30 32 32 31 30 30 30 30 29 29 28 28 28 29 29 29 29 29 28 28 28 28 28 28 28 27 27 27 27 27 26 25 24 23 22 21 21 20 20 20 20 20 20 20 18 17 17 17 17 16
25 23 23 24 25 28 30 30 29 31 33 32 32 32 33 32 31 30 30 30 30 29 28 28 28 28 28 29 29 28 28 27 27 26 26 26 26 26 26 26 26 26 26 25 24 23 22 21 20 21 21 21 21 20 20 21 20 19 18 18 18 16 16
27 22 21 23 27 29 28 27 29 33 34 33 33 33 33 32 32 32 31 30 29 29 29 28 27 27 27 26 26 26 26 25 25 25 25 24 24 23 23 23 24 24 24 23 23 22 22 21 22 22 22 22 22 22 22 23 22 20 20 20 18 16 16
29 24 21 24 28 29 29 31 33 35 36 36 36 36 34 34 34 34 32 31 30 30 29 28 26 24 23 23 22 22 23 22 22 22 22 21 21 20 20 21 21 22 22 22 22 22 23 24 24 24 23 23 23 23 24 24 24 21 20 20 18 17 17
30 25 21 24 28 30 31 33 34 35 37 39 39 38 37 37 37 36 34 33 31 31 29 27 26 24 23 23 22 22 21 20 19 19 18 18 18 18 18 18 19 20 20 21 22 23 24 25 25 25 24 24 25 25 25 26 25 22 21 20 19 17 17
30 25 21 24 31 34 34 34 35 37 39 41 41 40 39 40 39 37 36 35 33 32 30 28 28 27 26 26 25 23 22 21 20 18 18 18 18 18 18 18 18 19 19 20 21 23 24 25 25 25 25 25 26 27 27 27 26 24 22 22 20 19 19
30 25 21 25 32 36 35 35 36 39 41 42 42 42 41 42 41 39 38 37 34 32 32 31 31 31 29 28 26 25 24 23 22 21 20 21 21 20 19 19 19 19 20 20 22 23 24 25 25 25 26 26 27 27 27 28 27 25 24 23 22 21 21
31 26 23 25 33 38 37 37 38 40 42 43 42 41 42 43 43 41 38 36 35 34 34 35 34 32 31 29 27 26 25 25 25 24 24 24 23 22 21 21 20 20 20 21 22 23 23 25 25 26 26 26 26 27 28 28 27 26 24 24 23 23 22
32 28 25 27 33 39 39 39 41 42 43 43 42 41 41 42 41 39 37 35 35 36 37 37 36 35 33 31 29 27 26 26 26 27 26 26 25 24 24 23 22 21 21 20 21 22 23 24 24 25 26 26 26 26 28 28 28 26 25 24 24 23 22
32 29 28 29 34 40 42 42 43 44 44 44 44 43 42 41 39 38 37 37 38 39 39 39 40 38 36 33 31 29 29 28 28 28 28 29 28 27 26 26 24 23 22 21 21 22 22 23 24 24 25 26 26 26 27 28 28 28 26 25 24 24 23
33 31 31 32 34 38 42 42 43 44 45 45 45 45 44 42 41 41 40 39 40 41 41 42 42 41 39 37 35 33 32 31 31 31 31 31 31 30 28 28 26 25 24 23 22 22 22 22 23 23 23 25 26 26 27 29 29 28 27 26 25 25 25
34 33 34 34 35 37 39 39 40 41 42 43 44 44 43 43 43 43 42 42 42 42 43 44 44 43 41 40 39 38 37 36 35 35 34 34 33 33 31 30 28 27 26 25 24 24 23 22 22 21 21 23 26 27 28 29 29 29 28 27 27 27 28
36 36 36 36 37 37 37 37 37 37 38 39 40 40 40 40 42 43 43 43 43 44 44 45 45 45 45 44 44 43 41 40 40 38 36 35 35 35 34 32 30 29 29 27 26 26 24 22 22 21 20 21 24 27 28 29 29 30 30 29 29 30 30
38 38 38 38 38 38 38 37 38 38 38 37 37 38 38 39 41 43 44 44 44 45 45 46 46 46 46 47 48 47 45 43 42 41 38 37 36 35 35 34 32 32 31 31 31 30 28 26 24 23 21 21 23 26 29 29 30 31 31 31 31 31 31
40 39 39 39 38 39 39 38 37 38 39 38 37 36 36 38 40 43 44 45 46 46 47 47 47 46 45 45 46 47 46 45 44 43 42 40 38 37 35 34 34 34 34 35 35 35 34 32 28 26 25 24 23 25 27 28 29 31 32 32 32 32 32
42 41 40 40 38 39 39 39 38 37 37 38 37 36 37 38 39 41 43 45 47 47 47 47 47 46 45 45 46 47 46 46 45 45 45 43 42 40 38 37 36 36 36 37 37 37 36 35 33 31 30 28 25 25 25 27 29 32 33 33 33 33 33
45 43 42 41 40 39 40 39 38 37 36 35 35 36 36 37 38 38 40 42 44 46 47 48 48 49 49 48 48 48 48 48 48 48 48 47 46 44 43 41 40 39 39 39 38 38 38 37 36 35 33 31 29 28 27 29 31 33 34 35 35 35 35
48 47 45 43 42 42 42 41 41 39 38 36 35 35 35 36 36 36 37 38 40 42 44 46 48 49 50 50 50 50 51 51 51 50 50 50 49 48 48 47 45 44 43 42 42 41 41 40 39 38 36 34 32 31 30 31 32 33 34 36 37 37 37

ECMWFFLT1_500_spd_084.txt.gz
Wind_Speed
40 39 37 34 31 29 26 22 20 21 20 19 18 18 19 19 21 22 24 26 27 27 27 27 27 28 28 28 28 27 26 24 24 24 24 23 22 21 19 18 17 16 15 14 14 13 13 14 14 14 14 14 13 13 13 13 12 12 11 10 9 9 9
42 39 37 34 31 29 26 22 21 22 21 20 19 18 18 19 21 23 24 26 27 27 28 28 28 29 29 29 28 27 26 25 25 26 25 24 23 22 21 19 17 16 15 14 13 13 13 14 15 15 15 16 16 16 15 15 14 13 12 10 9 8 8
42 40 37 35 32 30 28 24 23 23 23 22 20 18 18 18 21 23 25 27 27 27 28 29 29 30 31 31 30 28 27 26 27 27 26 25 24 23 22 20 18 17 15 13 13 13 14 15 16 17 18 19 19 18 17 16 15 14 13 11 10 8 7
42 40 38 35 33 32 31 27 25 25 25 24 22 20 19 19 21 24 27 28 28 27 27 28 30 31 31 32 31 29 28 27 27 28 28 27 26 24 23 21 20 17 16 15 15 15 16 17 19 20 21 21 19 18 16 14 13 12 11 10 9 7 6
41 41 39 37 36 34 32 28 26 26 26 25 24 22 21 21 22 24 27 29 29 28 28 30 31 32 32 32 32 31 29 28 29 30 29 28 27 25 24 23 21 19 18 17 17 17 18 20 22 23 22 21 19 17 15 13 11 10 9 8 7 6 5
42 41 40 39 37 35 32 30 28 27 27 27 26 24 23 23 23 24 27 30 30 29 29 30 31 32 32 32 32 32 31 30 30 31 30 29 27 26 25 24 23 21 19 19 19 19 21 23 24 24 23 21 19 16 14 12 10 9 8 7 6 5 4
43 42 40 38 37 36 33 32 31 29 29 29 29 28 27 26 25 25 27 29 30 31 29 29 29 30 31 31 32 32 31 31 31 31 30 29 28 27 27 26 24 22 21 20 20 21 23 25 26 25 23 21 18 16 14 12 10 9 8 7 6 5 4
43 41 39 38 38 37 35 34 33 32 32 32 31 31 29 28 27 26 26 27 30 31 30 28 28 29 30 31 31 31 31 31 31 31 30 29 28 28 27 27 26 24 22 22 22 23 25 27 26 25 23 21 18 16 13 11 9 8 7 7 6 6 5
44 42 40 40 39 39 37 36 36 36 35 34 33 32 31 30 29 27 25 26 29 31 30 29 28 28 30 31 31 31 32 32 32 32 31 29 28 28 28 28 27 25 24 24 24 25 26 27 27 26 24 21 19 16 13 11 9 8 7 7 6 6 6
46 43 42 42 41 41 39 38 39 38 38 36 35 34 34 33 31 28 27 27 27 29 31 31 30 29 29 30 31 32 33 33 32 32 31 30 29 28 29 29 28 26 26 26 26 26 28 28 27 26 24 21 19 16 14 12 10 9 8 7 7 7 7
46 44 44 44 44 42 41 39 39 38 38 37 35 35 35 34 32 30 28 26 25 27 30 32 31 30 30 30 31 32 32 32 32 32 31 30 29 29 29 30 29 28 27 27 27 28 29 29 28 27 25 22 20 17 15 13 11 10 9 8 7 7 8
45 46 46 46 45 43 42 40 38 38 38 37 36 36 37 36 34 32 29 27 25 26 29 32 32 31 31 31 32 32 31 31 31 32 31 31 30 29 30 30 30 29 28 28 28 29 30 30 30 28 26 23 21 19 16 14 12 11 10 9 8 9 9
48 48 49 49 48 45 43 41 39 39 38 37 36 37 37 36 35 33 31 29 27 26 28 31 32 32 31 32 32 31 31 31 30 31 32 32 31 31 30 30 31 30 29 29 29 29 30 31 31 30 28 25 22 20 17 15 13 11 10 10 10 10 11
53 52 53 52 51 49 46 44 42 41 40 39 37 37 37 37 36 35 33 31 29 27 27 29 31 32 32 32 32 31 31 30 30 31 32 33 33 32 31 31 31 32 31 30 29 29 30 31 32 31 29 26 23 21 18 15 13 12 11 11 12 12 13
57 55 55 55 54 52 49 47 46 44 42 41 39 37 37 38 38 37 34 32 30 29 28 27 29 31 33 33 31 31 31 31 31 31 32 33 33 33 32 31 32 33 32 31 30 30 31 32 32 32 30 27 24 21 18 15 14 12 12 13 13 14 13
60 59 58 57 56 54 51 50 48 46 44 43 41 39 38 39 39 36 33 31 30 29 29 27 27 29 32 32 31 31 32 32 31 31 32 33 33 33 33 32 32 33 33 32 31 31 31 31 32 31 30 28 25 21 19 16 15 14 14 14 14 14 13
60 61 60 60 59 56 54 53 51 48 46 45 43 41 39 39 39 36 33 32 31 30 29 28 26 27 29 32 32 33 33 33 32 31 31 32 33 34 34 33 33 33 33 33 32 31 31 31 31 31 30 28 25 22 20 18 16 15 15 16 15 15 14
59 61 61 60 59 58 57 56 54 51 48 46 45 44 42 41 40 38 35 34 32 31 31 29 28 28 28 30 32 34 34 34 33 31 31 32 34 34 35 34 33 33 33 33 33 32 31 31 31 31 30 29 26 23 21 20 18 16 16 17 16 16 15
58 60 61 60 59 58 57 56 56 53 50 47 46 45 44 42 41 39 37 36 35 34 33 31 30 30 29 29 32 34 35 35 33 32 32 33 34 35 35 35 34 33 33 34 34 33 32 31 31 31 30 29 26 25 24 22 19 17 17 18 17 16 16
57 58 59 59 59 59 58 57 55 53 50 47 46 45 45 44 42 41 41 40 39 37 35 33 32 31 30 29 31 34 36 35 34 33 33 33 35 35 35 35 34 33 33 34 35 34 32 32 31 30 30 29 28 27 26 23 20 19 19 19 18 17 17
53 55 57 58 58 59 58 56 53 50 48 47 48 47 47 46 44 44 44 42 41 39 37 35 34 32 31 31 32 34 35 35 34 34 33 34 35 36 36 35 35 34 34 34 34 34 34 33 32 31 30 30 29 28 27 25 23 22 21 20 19 18 18
48 52 54 56 58 59 58 55 51 48 47 48 49 50 49 48 46 46 46 45 42 39 37 36 35 33 33 32 32 32 33 34 35 35 34 35 35 36 36 35 35 35 34 34 34 34 34 34 33 32 32 31 31 30 29 27 25 24 23 21 20 19 19
45 49 51 54 57 58 56 52 49 47 46 47 49 49 49 48 47 46 47 47 43 39 38 37 35 34 34 32 31 31 32 34 35 35 35 35 35 35 35 35 35 35 34 33 34 34 35 35 34 34 34 33 32 31 30 28 26 25 24 23 21 21 20
44 46 48 51 53 52 50 48 47 47 46 47 48 49 49 49 48 48 48 47 42 39 38 37 36 35 34 32 30 30 32 33 34 35 35 35 34 34 35 35 35 34 34 33 34 35 35 35 35 35 35 34 33 31 30 29 27 25 25 24 23 22 21
43 44 45 46 45 44 44 45 46 46 47 48 49 50 49 49 49 49 49 46 42 40 38 36 35 35 33 31 30 30 31 32 33 34 35 34 34 35 35 35 34 34 33 33 34 35 36 36 35 35 34 34 32 31 30 29 27 26 26 26 25 23 22
40 40 40 40 39 39 40 41 41 42 43 45 46 48 48 48 49 51 50 47 43 40 36 34 35 35 33 31 30 31 31 32 33 34 34 34 34 35 35 34 34 33 32 32 33 34 35 35 35 34 33 33 32 31 30 29 27 27 27 27 26 25 23
38 37 36 35 36 36 37 37 36 36 38 40 42 43 44 46 49 51 50 47 42 38 35 35 36 36 33 31 31 31 31 32 33 34 34 34 34 34 34 33 32 31 31 31 32 32 33 33 34 33 33 32 31 30 30 29 28 28 28 28 27 26 25
37 36 35 34 35 36 35 34 34 34 35 37 39 40 41 43 47 49 48 44 39 36 36 38 37 35 33 32 31 31 31 32 33 34 35 34 34 33 33 32 31 31 30 31 31 31 31 32 32 33 32 32 31 30 29 29 29 28 28 29 29 27 25
38 36 36 36 36 36 35 33 32 33 34 35 37 39 40 42 43 44 42 39 38 38 39 39 37 34 33 32 31 30 30 32 33 34 34 34 33 32 32 32 31 30 30 30 30 30 30 31 31 31 31 31 30 29 29 29 29 29 29 30 29 28 26
40 39 39 39 37 36 34 31 30 31 31 33 35 37 38 39 39 38 38 39 39 40 40 39 37 35 33 30 29 29 31 32 34 35 34 34 33 32 32 31 31 30 29 29 29 29 30 30 30 30 30 29 29 29 28 29 29 29 29 29 29 27 26
43 43 43 41 40 37 33 30 29 28 28 31 33 34 35 36 37 38 40 40 41 40 40 39 36 33 31 29 28 29 31 33 34 34 34 33 33 32 31 31 30 29 29 29 29 29 28 28 28 28 28 28 27 27 27 28 28 28 27 27 26 26 26
46 46 45 44 42 39 35 32 30 29 28 29 31 32 32 34 36 38 40 40 40 40 39 38 35 31 29 28 28 29 31 32 33 33 33 32 32 31 31 30 29 29 28 28 28 27 27 27 27 26 26 26 26 26 26 26 26 26 25 25 25 26 26
49 49 47 45 44 41 38 36 34 32 30 30 31 31 32 34 35 37 39 40 40 40 39 37 33 30 29 28 29 30 31 31 32 32 32 31 31 31 30 30 30 29 29 28 28 27 27 27 26 26 25 25 24 25 25 25 26 25 25 25 25 25 26
51 51 48 46 45 43 41 39 37 34 33 33 34 34 34 34 35 35 38 40 40 40 39 36 32 31 31 31 31 31 32 32 33 33 33 32 32 32 32 31 31 30 29 28 28 28 28 28 27 26 26 25 25 25 25 26 26 26 25 25 25 25 25
53 52 49 47 45 44 42 40 37 35 34 35 36 36 35 35 34 35 38 40 41 40 39 35 34 34 34 34 33 33 34 34 35 35 34 34 34 33 33 33 32 31 30 30 29 29 29 29 28 28 27 27 27 27 27 27 27 26 26 27 27 25 24
55 54 51 48 46 44 42 40 37 36 36 36 36 36 37 35 34 36 39 41 41 41 39 37 37 37 37 36 36 35 35 36 37 37 37 36 36 35 35 34 34 33 32 32 32 31 31 31 30 29 29 29 28 28 28 29 28 28 29 29 28 27 26
57 56 53 50 47 46 44 42 38 36 37 38 38 37 37 36 34 34 37 40 42 42 42 41 41 41 41 40 38 38 39 39 39 39 39 38 38 37 37 37 36 36 35 35 34 34 34 33 32 32 32 31 30 30 30 31 31 31 32 31 31 30 29
59 58 55 52 50 48 46 44 41 39 38 39 40 40 38 37 36 34 35 39 41 43 44 44 43 44 45 44 43 42 42 42 42 42 41 41 40 39 39 38 38 37 37 38 37 37 37 36 35 35 34 34 34 33 33 33 34 34 34 34 33 32 31

ECMWFFLT1_500_spd_087.txt.gz
Wind_Speed
38 37 35 32 29 28 27 27 25 22 20 18 17 17 16 16 17 19 21 23 25 27 27 27 27 27 28 29 29 28 26 23 20 20 20 20 19 18 17 16 15 14 14 13 12 12 12 12 12 11 11 11 10 10 10 10 9 9 9 8 8 7 7
40 39 36 33 32 30 28 28 26 23 22 20 18 17 15 15 16 18 20 22 25 27 27 28 28 28 29 30 30 30 28 25 23 22 22 21 20 19 18 17 16 15 14 13 12 12 13 13 13 13 12 12 12 11 11 11 10 10 9 9 8 8 8
38 38 36 33 33 31 28 28 27 25 23 21 19 17 15 15 16 17 20 22 25 27 29 29 29 29 30 31 31 31 30 27 25 24 24 23 22 21 19 18 17 16 14 13 13 13 14 14 14 14 13 13 13 12 12 11 11 10 9 8 8 8 7
38 37 36 34 34 33 30 29 28 26 24 22 20 18 16 16 16 17 19 22 24 27 29 29 29 30 30 31 32 32 31 29 27 26 26 25 24 22 20 19 18 17 15 14 14 14 14 15 15 15 14 14 14 14 13 13 12 11 10 9 8 7 6
41 39 36 34 34 34 32 30 28 26 25 23 22 20 19 18 17 17 19 21 24 26 28 30 31 32 32 32 32 32 31 30 28 28 28 27 25 23 22 21 20 18 17 16 16 15 15 15 16 16 16 16 16 16 15 14 12 11 10 9 8 7 6
44 41 37 35 35 34 33 31 29 28 26 25 24 23 21 20 18 18 19 21 23 26 28 30 31 31 32 32 33 32 32 31 30 30 30 29 27 25 23 23 22 20 19 18 17 16 16 16 16 17 18 18 17 17 15 13 12 10 9 7 6 5 5
46 42 38 37 35 34 35 33 30 29 29 28 27 25 23 22 21 20 20 20 22 25 27 29 29 30 31 31 31 31 31 31 30 30 31 30 28 26 25 24 24 23 21 20 18 18 17 17 18 19 20 19 18 17 15 13 11 10 8 7 5 4 3
47 43 39 37 36 34 36 36 32 31 32 30 28 27 25 24 23 22 21 20 21 23 26 29 29 29 30 31 30 31 31 31 31 31 31 30 29 27 27 26 25 24 22 21 20 20 19 19 20 21 21 21 19 17 15 14 12 10 9 7 6 5 3
47 44 39 37 37 36 36 37 35 34 34 33 31 29 27 26 25 24 23 22 21 22 25 28 29 28 29 30 30 30 31 31 31 31 31 30 29 28 27 27 26 25 23 22 22 21 20 20 21 23 23 22 20 18 17 15 13 12 10 9 7 6 4
45 43 40 38 38 36 37 39 40 38 37 35 33 31 29 28 27 26 25 24 22 21 23 27 29 29 29 30 31 31 31 31 30 31 31 30 30 29 28 27 27 26 25 24 24 22 22 22 23 24 25 24 22 20 19 17 15 13 11 10 8 7 6
46 45 44 41 39 39 39 41 42 40 37 36 35 33 31 30 29 28 26 25 24 23 23 25 28 30 29 30 31 32 31 30 30 30 30 30 30 29 29 27 27 27 27 26 25 24 23 23 24 26 26 25 24 22 21 18 16 14 12 11 9 8 7
48 50 48 44 43 44 44 44 42 39 38 38 37 37 35 32 31 30 29 27 26 25 24 23 25 28 30 30 31 31 31 31 30 29 29 30 30 30 29 28 27 28 28 27 26 25 24 24 25 27 28 28 26 24 22 20 18 15 13 11 10 9 9
51 52 48 43 43 45 47 46 41 39 41 41 40 40 38 35 34 33 31 29 28 28 25 23 22 24 28 31 31 30 30 30 30 29 29 30 30 30 30 28 27 28 29 28 27 26 25 25 26 28 29 30 28 26 24 21 18 16 14 12 11 10 10
50 48 44 41 43 46 48 47 44 42 43 43 43 44 41 38 36 35 33 32 31 30 27 24 22 21 23 28 30 29 29 30 30 30 30 30 31 31 31 29 28 28 29 29 28 28 27 26 27 29 31 31 30 27 25 21 19 16 14 12 12 11 11
48 45 43 44 45 47 49 49 47 45 45 46 46 45 43 40 37 36 35 34 32 31 29 26 23 21 21 24 27 28 29 30 31 31 31 31 32 31 31 30 29 28 29 29 29 29 28 27 27 29 30 31 30 28 25 22 19 16 14 13 13 12 12
49 48 49 50 49 51 53 53 51 48 47 47 46 46 45 41 37 34 34 34 33 32 30 28 24 22 21 22 24 26 29 31 31 31 31 31 31 31 31 31 30 30 29 29 30 30 30 29 28 29 30 30 30 29 26 23 20 18 16 14 14 14 13
52 51 52 52 51 54 56 56 55 52 49 48 47 47 45 42 38 35 33 34 34 33 32 30 26 23 22 23 24 24 27 30 32 32 31 31 31 31 31 31 31 31 30 30 30 31 31 30 29 28 29 30 30 30 27 24 22 19 17 15 14 14 14
52 53 54 52 51 53 55 55 55 54 51 49 48 48 46 43 40 37 33 33 33 33 33 32 28 25 23 23 24 24 24 28 31 32 32 31 30 31 32 32 32 32 31 30 30 31 31 31 30 29 29 30 31 30 28 26 24 21 18 16 15 15 14
53 54 55 54 52 52 54 55 54 53 52 50 50 49 46 43 41 37 34 32 33 34 35 34 31 27 25 25 24 24 24 26 30 31 31 31 31 31 32 32 32 32 31 30 31 31 32 32 31 30 29 29 30 30 29 27 25 22 20 17 16 15 15
53 54 55 55 53 52 54 56 54 52 52 52 51 50 47 45 43 39 37 36 35 36 36 35 33 29 27 26 26 24 24 25 28 30 30 31 31 31 32 32 32 32 32 32 32 32 31 32 32 31 29 29 29 30 30 29 26 24 22 19 17 16 16
50 53 55 55 54 54 56 57 56 55 54 53 52 51 49 47 44 42 41 39 38 37 36 36 35 32 29 28 27 25 24 25 27 29 29 30 30 31 31 32 32 32 32 33 33 32 31 32 32 32 30 29 29 30 31 30 28 26 24 21 18 17 17
47 50 54 56 56 56 57 57 56 56 56 55 53 53 52 49 46 45 43 41 40 38 37 37 36 33 31 30 28 26 25 26 27 28 28 28 29 30 31 31 31 32 32 33 33 32 32 32 32 32 31 30 29 30 31 31 29 28 26 24 20 19 18
46 48 53 56 57 58 58 57 55 54 55 55 55 54 53 50 48 46 44 43 43 41 40 39 37 34 33 32 31 28 27 28 28 27 27 28 28 30 31 30 30 31 33 33 33 32 32 32 32 32 32 31 30 30 31 32 31 30 28 26 22 20 18
45 47 51 55 58 59 59 59 56 54 55 55 55 54 54 52 50 48 46 45 45 44 43 41 38 36 35 34 32 29 29 29 28 26 26 27 28 29 30 30 30 31 32 33 32 32 32 32 32 32 33 32 31 31 32 32 32 31 30 27 24 21 20
45 46 49 53 58 60 60 60 57 54 55 56 55 53 53 53 52 50 47 46 46 47 46 42 39 38 37 35 33 31 30 31 29 26 26 27 28 29 30 31 31 31 31 32 32 31 31 32 32 32 33 33 33 32 32 32 32 31 30 27 25 23 22
47 46 47 50 55 58 60 60 58 55 55 56 54 52 53 53 53 51 48 46 47 48 46 44 42 41 39 37 36 33 32 31 29 27 26 27 28 29 30 31 32 31 31 31 31 31 30 31 31 32 32 34 34 33 32 32 32 30 29 28 27 25 24
48 47 46 48 51 54 57 59 57 55 55 55 53 51 51 53 53 51 48 47 48 48 47 45 44 43 41 39 37 35 33 32 30 27 27 28 29 30 31 32 32 32 31 30 30 30 29 30 30 31 32 34 34 34 33 32 31 30 29 29 28 26 26
49 47 46 46 47 49 53 55 54 53 53 53 50 49 51 52 52 49 47 47 47 47 48 48 46 44 42 40 38 36 34 33 31 29 29 30 30 30 31 31 32 32 31 30 30 29 29 29 30 31 32 34 34 34 33 33 31 30 29 29 28 27 27
49 47 46 45 46 47 49 51 51 51 51 49 48 48 50 50 48 46 44 44 44 47 51 50 48 45 43 40 38 36 35 33 31 30 30 30 30 30 31 31 32 31 30 29 29 28 28 29 30 31 32 32 33 33 32 32 31 29 28 28 27 27 27
49 47 45 45 44 45 46 46 46 46 45 45 45 45 46 46 45 44 43 42 43 49 52 51 49 48 45 41 38 36 35 33 32 31 31 30 30 31 31 31 31 30 29 29 28 28 28 28 29 29 30 30 31 30 30 30 29 28 27 27 27 27 28
48 46 45 44 44 43 42 40 40 40 40 41 42 41 41 42 42 42 42 43 46 50 51 50 50 49 46 42 40 38 36 33 31 31 30 29 29 30 30 30 30 29 28 28 28 27 27 27 27 27 27 27 28 28 28 28 28 27 27 27 28 28 29
48 45 44 44 43 41 39 37 37 39 39 39 40 40 39 40 39 40 41 43 46 48 48 49 50 49 46 43 41 39 35 32 31 30 29 28 28 29 29 29 29 29 28 28 28 27 26 26 26 25 25 25 26 26 27 27 27 27 26 27 28 28 28
49 46 45 45 43 40 38 37 38 38 38 38 39 39 39 40 40 41 42 43 44 44 44 46 49 49 46 43 41 38 34 31 30 29 28 27 27 27 28 28 29 29 28 28 27 26 25 25 25 25 24 25 25 26 26 26 26 26 25 26 26 26 26
49 47 46 46 44 41 38 38 38 39 39 39 39 38 38 39 40 41 42 42 42 41 41 45 48 47 45 43 40 37 33 31 30 28 27 26 25 26 27 28 29 28 28 27 26 26 25 24 24 24 24 24 25 25 25 26 26 26 25 25 25 25 25
50 48 48 47 45 43 40 39 40 41 40 40 39 37 35 36 37 39 40 41 41 40 41 44 47 46 45 43 40 36 33 31 30 28 26 25 25 26 27 28 28 28 28 28 27 27 26 26 26 26 26 27 27 27 27 27 26 26 26 26 25 25 25
50 50 50 49 46 44 42 42 43 43 41 40 38 35 32 32 34 37 39 40 40 40 41 44 46 45 44 43 39 35 32 31 30 28 27 25 26 27 28 28 29 29 29 29 29 29 29 29 28 28 27 27 27 27 26 25 25 25 25 24 23 24 24
52 52 52 51 48 46 45 45 46 44 42 41 38 34 31 30 32 36 39 40 40 41 42 44 44 45 44 42 38 34 33 32 30 28 27 27 27 28 29 29 30 30 30 30 30 30 29 29 27 27 26 26 26 26 25 24 25 25 25 24 23 23 23
55 55 54 53 51 49 48 48 47 46 44 42 40 37 33 31 32 35 38 40 40 41 43 43 43 44 44 41 37 35 33 33 31 29 29 29 30 30 31 32 32 32 32 32 31 31 30 29 28 27 27 27 28 27 26 26 26 27 26 25 25 25 25